Time,TemperatureF,DewpointF,PressureIn,WindDirection,WindDirectionDegrees,WindSpeedMPH,WindSpeedGustMPH,Humidity,HourlyPrecipIn,Conditions,Clouds,dailyrainin,SoftwareType,DateUTC
2013-09-05 00:01:00,70.9,63.0,29.99,SW,230,9.0,13.0,76,0.00,,,0.00,meteohub,2013-09-05 04:01:00,
2013-09-05 00:03:00,70.7,63.1,29.99,West,261,7.0,13.0,77,0.00,,,0.00,meteohub,2013-09-05 04:03:00,
2013-09-05 00:06:00,70.7,63.1,29.99,WSW,243,4.0,13.0,77,0.00,,,0.00,meteohub,2013-09-05 04:06:00,
2013-09-05 00:07:00,70.7,63.1,29.99,WSW,252,8.0,13.0,77,0.00,,,0.00,meteohub,2013-09-05 04:07:00,
2013-09-05 00:09:00,70.7,63.1,29.99,WSW,238,4.0,13.0,77,0.00,,,0.00,meteohub,2013-09-05 04:09:00,
2013-09-05 00:11:00,70.5,63.0,29.99,SW,224,6.0,13.0,77,0.00,,,0.00,meteohub,2013-09-05 04:11:00,
2013-09-05 00:12:00,70.5,63.0,29.99,West,269,9.0,13.0,77,0.00,,,0.00,meteohub,2013-09-05 04:12:00,
2013-09-05 00:15:00,70.5,63.0,29.99,SW,236,6.0,12.0,77,0.00,,,0.00,meteohub,2013-09-05 04:15:00,
2013-09-05 00:16:00,70.3,62.8,29.98,SW,235,6.0,12.0,77,0.00,,,0.00,meteohub,2013-09-05 04:16:00,
2013-09-05 00:17:00,70.3,62.8,29.99,WSW,243,6.0,12.0,77,0.00,,,0.00,meteohub,2013-09-05 04:17:00,
2013-09-05 00:18:00,70.3,62.8,29.99,WSW,253,8.0,12.0,77,0.00,,,0.00,meteohub,2013-09-05 04:18:00,
2013-09-05 00:22:00,70.3,63.1,29.99,WSW,252,9.0,11.0,78,0.00,,,0.00,meteohub,2013-09-05 04:22:00,
2013-09-05 00:23:00,70.3,63.1,29.99,WSW,244,7.0,11.0,78,0.00,,,0.00,meteohub,2013-09-05 04:23:00,
2013-09-05 00:25:00,70.3,63.1,29.99,WSW,240,9.0,11.0,78,0.00,,,0.00,meteohub,2013-09-05 04:25:00,
2013-09-05 00:26:00,70.3,63.1,29.99,WSW,258,7.0,11.0,78,0.00,,,0.00,meteohub,2013-09-05 04:26:00,
2013-09-05 00:27:00,70.3,63.1,29.99,SW,231,6.0,11.0,78,0.00,,,0.00,meteohub,2013-09-05 04:27:00,
2013-09-05 00:28:00,70.3,63.1,29.98,West,266,4.0,11.0,78,0.00,,,0.00,meteohub,2013-09-05 04:28:00,
2013-09-05 00:29:00,70.3,63.1,29.99,WSW,243,6.0,11.0,78,0.00,,,0.00,meteohub,2013-09-05 04:29:00,
2013-09-05 00:31:00,70.3,63.1,29.99,WSW,248,5.0,10.0,78,0.00,,,0.00,meteohub,2013-09-05 04:31:00,
2013-09-05 00:32:00,70.3,63.1,29.98,WSW,257,4.0,10.0,78,0.00,,,0.00,meteohub,2013-09-05 04:32:00,
2013-09-05 00:33:00,70.3,63.1,29.99,WSW,238,8.0,10.0,78,0.00,,,0.00,meteohub,2013-09-05 04:33:00,
2013-09-05 00:34:00,70.3,63.1,29.99,WSW,254,4.0,10.0,78,0.00,,,0.00,meteohub,2013-09-05 04:34:00,
2013-09-05 00:35:00,70.3,63.1,29.99,WSW,242,3.0,10.0,78,0.00,,,0.00,meteohub,2013-09-05 04:35:00,
2013-09-05 00:36:00,70.3,63.1,29.99,WSW,242,4.0,10.0,78,0.00,,,0.00,meteohub,2013-09-05 04:36:00,
2013-09-05 00:37:00,70.3,63.1,29.98,WSW,247,8.0,10.0,78,0.00,,,0.00,meteohub,2013-09-05 04:37:00,
2013-09-05 00:38:00,70.3,63.1,29.98,SW,234,6.0,10.0,78,0.00,,,0.00,meteohub,2013-09-05 04:38:00,
2013-09-05 00:39:00,70.3,63.5,29.98,WSW,244,5.0,10.0,79,0.00,,,0.00,meteohub,2013-09-05 04:39:00,
2013-09-05 00:41:00,70.3,63.5,29.98,West,263,7.0,10.0,79,0.00,,,0.00,meteohub,2013-09-05 04:41:00,
2013-09-05 00:42:00,70.3,63.5,29.98,West,259,9.0,10.0,79,0.00,,,0.00,meteohub,2013-09-05 04:42:00,
2013-09-05 00:43:00,70.3,63.5,29.99,WSW,257,5.0,10.0,79,0.00,,,0.00,meteohub,2013-09-05 04:43:00,
2013-09-05 00:44:00,70.3,63.5,29.99,WSW,244,5.0,10.0,79,0.00,,,0.00,meteohub,2013-09-05 04:44:00,
2013-09-05 00:45:00,70.5,63.7,29.99,WSW,248,5.0,11.0,79,0.00,,,0.00,meteohub,2013-09-05 04:45:00,
2013-09-05 00:46:00,70.5,63.7,29.98,WSW,252,5.0,11.0,79,0.00,,,0.00,meteohub,2013-09-05 04:46:00,
2013-09-05 00:47:00,70.5,63.7,29.98,WSW,240,3.0,11.0,79,0.00,,,0.00,meteohub,2013-09-05 04:47:00,
2013-09-05 00:48:00,70.5,63.7,29.98,SW,230,5.0,11.0,79,0.00,,,0.00,meteohub,2013-09-05 04:48:00,
2013-09-05 00:49:00,70.5,63.7,29.98,WSW,249,9.0,11.0,79,0.00,,,0.00,meteohub,2013-09-05 04:49:00,
2013-09-05 00:50:00,70.5,63.7,29.98,WSW,242,5.0,11.0,79,0.00,,,0.00,meteohub,2013-09-05 04:50:00,
2013-09-05 00:52:00,70.5,63.7,29.98,WSW,258,7.0,11.0,79,0.00,,,0.00,meteohub,2013-09-05 04:52:00,
2013-09-05 00:53:00,70.5,63.7,29.98,SW,222,6.0,11.0,79,0.00,,,0.00,meteohub,2013-09-05 04:53:00,
2013-09-05 00:55:00,70.5,63.7,29.98,SW,232,8.0,11.0,79,0.00,,,0.00,meteohub,2013-09-05 04:55:00,
2013-09-05 00:57:00,70.7,63.9,29.98,WSW,254,9.0,12.0,79,0.00,,,0.00,meteohub,2013-09-05 04:57:00,
2013-09-05 00:59:00,70.7,63.9,29.98,WSW,254,5.0,12.0,79,0.00,,,0.00,meteohub,2013-09-05 04:59:00,
2013-09-05 01:00:00,70.9,64.0,29.98,WSW,255,5.0,13.0,79,0.00,,,0.00,meteohub,2013-09-05 05:00:00,
2013-09-05 01:01:00,70.9,64.0,29.98,SW,224,3.0,13.0,79,0.00,,,0.00,meteohub,2013-09-05 05:01:00,
2013-09-05 01:02:00,70.9,64.0,29.98,WSW,246,3.0,13.0,79,0.00,,,0.00,meteohub,2013-09-05 05:02:00,
2013-09-05 01:03:00,70.9,64.0,29.98,SW,235,5.0,13.0,79,0.00,,,0.00,meteohub,2013-09-05 05:03:00,
2013-09-05 01:05:00,70.9,64.0,29.98,WSW,237,4.0,13.0,79,0.00,,,0.00,meteohub,2013-09-05 05:05:00,
2013-09-05 01:06:00,70.9,64.0,29.98,WSW,240,9.0,13.0,79,0.00,,,0.00,meteohub,2013-09-05 05:06:00,
2013-09-05 01:07:00,70.9,64.0,29.98,WSW,244,8.0,13.0,79,0.00,,,0.00,meteohub,2013-09-05 05:07:00,
2013-09-05 01:08:00,70.9,64.0,29.98,WSW,242,4.0,13.0,79,0.00,,,0.00,meteohub,2013-09-05 05:08:00,
2013-09-05 01:09:00,70.9,64.0,29.98,WSW,240,2.0,13.0,79,0.00,,,0.00,meteohub,2013-09-05 05:09:00,
2013-09-05 01:10:00,70.9,64.0,29.98,WSW,255,2.0,13.0,79,0.00,,,0.00,meteohub,2013-09-05 05:10:00,
2013-09-05 01:12:00,71.1,64.2,29.98,WSW,252,8.0,13.0,79,0.00,,,0.00,meteohub,2013-09-05 05:12:00,
2013-09-05 01:13:00,71.1,64.2,29.98,WSW,238,6.0,13.0,79,0.00,,,0.00,meteohub,2013-09-05 05:13:00,
2013-09-05 01:14:00,71.1,64.6,29.98,WSW,244,7.0,13.0,80,0.00,,,0.00,meteohub,2013-09-05 05:14:00,
2013-09-05 01:16:00,71.1,64.6,29.98,WSW,249,4.0,13.0,80,0.00,,,0.00,meteohub,2013-09-05 05:16:00,
2013-09-05 01:17:00,71.2,64.8,29.97,WSW,240,5.0,13.0,80,0.00,,,0.00,meteohub,2013-09-05 05:17:00,
2013-09-05 01:18:00,71.2,64.8,29.97,WSW,251,5.0,13.0,80,0.00,,,0.00,meteohub,2013-09-05 05:18:00,
2013-09-05 01:19:00,71.2,64.8,29.97,West,271,6.0,13.0,80,0.00,,,0.00,meteohub,2013-09-05 05:19:00,
2013-09-05 01:22:00,71.2,64.8,29.97,SW,234,5.0,11.0,80,0.00,,,0.00,meteohub,2013-09-05 05:22:00,
2013-09-05 01:23:00,71.4,64.9,29.97,SW,232,2.0,11.0,80,0.00,,,0.00,meteohub,2013-09-05 05:23:00,
2013-09-05 01:24:00,71.4,64.9,29.97,SW,232,7.0,11.0,80,0.00,,,0.00,meteohub,2013-09-05 05:24:00,
2013-09-05 01:26:00,71.4,64.9,29.97,SSW,213,6.0,11.0,80,0.00,,,0.00,meteohub,2013-09-05 05:26:00,
2013-09-05 01:27:00,71.4,64.9,29.97,WSW,248,10.0,11.0,80,0.00,,,0.00,meteohub,2013-09-05 05:27:00,
2013-09-05 01:28:00,71.4,64.9,29.97,West,261,6.0,11.0,80,0.00,,,0.00,meteohub,2013-09-05 05:28:00,
2013-09-05 01:29:00,71.4,64.9,29.97,SW,230,8.0,11.0,80,0.00,,,0.00,meteohub,2013-09-05 05:29:00,
2013-09-05 01:32:00,71.4,64.9,29.97,WSW,239,6.0,12.0,80,0.00,,,0.00,meteohub,2013-09-05 05:32:00,
2013-09-05 01:33:00,71.4,64.9,29.97,SW,225,4.0,12.0,80,0.00,,,0.00,meteohub,2013-09-05 05:33:00,
2013-09-05 01:34:00,71.4,64.9,29.97,SW,236,6.0,12.0,80,0.00,,,0.00,meteohub,2013-09-05 05:34:00,
2013-09-05 01:35:00,71.4,64.9,29.97,SW,236,11.0,12.0,80,0.00,,,0.00,meteohub,2013-09-05 05:35:00,
2013-09-05 01:38:00,71.4,64.9,29.97,WSW,240,8.0,12.0,80,0.00,,,0.00,meteohub,2013-09-05 05:38:00,
2013-09-05 01:39:00,71.4,64.9,29.97,SSW,213,4.0,12.0,80,0.00,,,0.00,meteohub,2013-09-05 05:39:00,
2013-09-05 01:40:00,71.4,64.9,29.97,WSW,237,7.0,14.0,80,0.00,,,0.00,meteohub,2013-09-05 05:40:00,
2013-09-05 01:41:00,71.4,64.9,29.97,SSW,207,7.0,14.0,80,0.00,,,0.00,meteohub,2013-09-05 05:41:00,
2013-09-05 01:43:00,71.4,64.9,29.97,WSW,251,8.0,14.0,80,0.00,,,0.00,meteohub,2013-09-05 05:43:00,
2013-09-05 01:45:00,71.4,64.9,29.97,WSW,250,5.0,14.0,80,0.00,,,0.00,meteohub,2013-09-05 05:45:00,
2013-09-05 01:46:00,71.4,64.9,29.97,SW,217,6.0,14.0,80,0.00,,,0.00,meteohub,2013-09-05 05:46:00,
2013-09-05 01:47:00,71.4,64.9,29.97,SW,225,5.0,14.0,80,0.00,,,0.00,meteohub,2013-09-05 05:47:00,
2013-09-05 01:48:00,71.4,64.9,29.97,WSW,248,9.0,14.0,80,0.00,,,0.00,meteohub,2013-09-05 05:48:00,
2013-09-05 01:50:00,71.4,64.9,29.97,West,261,6.0,14.0,80,0.00,,,0.00,meteohub,2013-09-05 05:50:00,
2013-09-05 01:51:00,71.4,64.9,29.97,SW,229,5.0,14.0,80,0.00,,,0.00,meteohub,2013-09-05 05:51:00,
2013-09-05 01:52:00,71.4,64.9,29.97,SW,229,6.0,14.0,80,0.00,,,0.00,meteohub,2013-09-05 05:52:00,
2013-09-05 01:53:00,71.4,64.9,29.97,WSW,242,6.0,14.0,80,0.00,,,0.00,meteohub,2013-09-05 05:53:00,
2013-09-05 01:55:00,71.4,64.9,29.97,WSW,249,9.0,13.0,80,0.00,,,0.00,meteohub,2013-09-05 05:55:00,
2013-09-05 01:57:00,71.4,64.9,29.97,WSW,258,11.0,13.0,80,0.00,,,0.00,meteohub,2013-09-05 05:57:00,
2013-09-05 01:58:00,71.4,64.9,29.97,SW,217,7.0,13.0,80,0.00,,,0.00,meteohub,2013-09-05 05:58:00,
2013-09-05 01:59:00,71.4,64.9,29.97,SSW,211,5.0,13.0,80,0.00,,,0.00,meteohub,2013-09-05 05:59:00,
2013-09-05 02:00:00,71.4,64.9,29.97,SW,224,4.0,14.0,80,0.00,,,0.00,meteohub,2013-09-05 06:00:00,
2013-09-05 02:01:00,71.4,64.9,29.97,WSW,241,11.0,14.0,80,0.00,,,0.00,meteohub,2013-09-05 06:01:00,
2013-09-05 02:03:00,71.4,64.9,29.97,SW,234,10.0,14.0,80,0.00,,,0.00,meteohub,2013-09-05 06:03:00,
2013-09-05 02:04:00,71.6,65.1,29.97,WSW,248,8.0,14.0,80,0.00,,,0.00,meteohub,2013-09-05 06:04:00,
2013-09-05 02:06:00,71.6,65.5,29.97,SSW,202,8.0,14.0,81,0.00,,,0.00,meteohub,2013-09-05 06:06:00,
2013-09-05 02:07:00,71.8,65.7,29.97,SW,226,4.0,14.0,81,0.00,,,0.00,meteohub,2013-09-05 06:07:00,
2013-09-05 02:08:00,71.6,65.5,29.97,SW,221,4.0,14.0,81,0.00,,,0.00,meteohub,2013-09-05 06:08:00,
2013-09-05 02:09:00,71.6,65.5,29.97,WSW,244,4.0,14.0,81,0.00,,,0.00,meteohub,2013-09-05 06:09:00,
2013-09-05 02:10:00,71.6,65.5,29.97,WSW,244,12.0,14.0,81,0.00,,,0.00,meteohub,2013-09-05 06:10:00,
2013-09-05 02:11:00,71.4,65.7,29.97,SSW,209,6.0,14.0,82,0.00,,,0.00,meteohub,2013-09-05 06:11:00,
2013-09-05 02:12:00,71.4,65.3,29.96,SW,225,9.0,14.0,81,0.00,,,0.00,meteohub,2013-09-05 06:12:00,
2013-09-05 02:14:00,71.4,65.7,29.97,WSW,243,4.0,14.0,82,0.00,,,0.00,meteohub,2013-09-05 06:14:00,
2013-09-05 02:15:00,71.4,65.7,29.96,SW,234,6.0,13.0,82,0.00,,,0.00,meteohub,2013-09-05 06:15:00,
2013-09-05 02:16:00,71.4,65.7,29.96,SW,235,9.0,13.0,82,0.00,,,0.00,meteohub,2013-09-05 06:16:00,
2013-09-05 02:17:00,71.2,65.5,29.97,WSW,250,9.0,13.0,82,0.00,,,0.00,meteohub,2013-09-05 06:17:00,
2013-09-05 02:19:00,71.2,65.5,29.96,WSW,246,4.0,13.0,82,0.00,,,0.00,meteohub,2013-09-05 06:19:00,
2013-09-05 02:20:00,71.2,65.5,29.96,WSW,252,8.0,13.0,82,0.00,,,0.00,meteohub,2013-09-05 06:20:00,
2013-09-05 02:21:00,71.2,65.5,29.96,SSW,202,8.0,13.0,82,0.00,,,0.00,meteohub,2013-09-05 06:21:00,
2013-09-05 02:22:00,71.2,65.5,29.97,WSW,239,15.0,15.0,82,0.00,,,0.00,meteohub,2013-09-05 06:22:00,
2013-09-05 02:24:00,71.2,65.1,29.97,WSW,252,10.0,13.0,81,0.00,,,0.00,meteohub,2013-09-05 06:24:00,
2013-09-05 02:25:00,71.1,64.9,29.96,WSW,254,9.0,15.0,81,0.00,,,0.00,meteohub,2013-09-05 06:25:00,
2013-09-05 02:26:00,71.1,64.9,29.96,WSW,238,8.0,15.0,81,0.00,,,0.00,meteohub,2013-09-05 06:26:00,
2013-09-05 02:28:00,71.1,64.9,29.96,SW,220,7.0,15.0,81,0.00,,,0.00,meteohub,2013-09-05 06:28:00,
2013-09-05 02:30:00,71.1,64.9,29.96,WSW,242,10.0,15.0,81,0.00,,,0.00,meteohub,2013-09-05 06:30:00,
2013-09-05 02:31:00,71.1,64.9,29.96,SW,232,6.0,15.0,81,0.00,,,0.00,meteohub,2013-09-05 06:31:00,
2013-09-05 02:33:00,70.9,64.8,29.96,WSW,250,10.0,15.0,81,0.00,,,0.00,meteohub,2013-09-05 06:33:00,
2013-09-05 02:34:00,70.7,64.6,29.96,West,260,10.0,15.0,81,0.00,,,0.00,meteohub,2013-09-05 06:34:00,
2013-09-05 02:35:00,70.5,64.4,29.97,WSW,238,11.0,15.0,81,0.00,,,0.00,meteohub,2013-09-05 06:35:00,
2013-09-05 02:36:00,70.5,64.4,29.96,WSW,242,11.0,15.0,81,0.00,,,0.00,meteohub,2013-09-05 06:36:00,
2013-09-05 02:39:00,70.3,64.2,29.96,WSW,245,11.0,15.0,81,0.00,,,0.00,meteohub,2013-09-05 06:39:00,
2013-09-05 02:40:00,70.3,64.2,29.96,SW,222,9.0,14.0,81,0.00,,,0.00,meteohub,2013-09-05 06:40:00,
2013-09-05 02:41:00,70.3,64.2,29.96,WSW,247,12.0,14.0,81,0.00,,,0.00,meteohub,2013-09-05 06:41:00,
2013-09-05 02:42:00,70.2,64.0,29.96,SW,220,8.0,14.0,81,0.00,,,0.00,meteohub,2013-09-05 06:42:00,
2013-09-05 02:44:00,70.2,64.0,29.96,SW,227,9.0,14.0,81,0.00,,,0.00,meteohub,2013-09-05 06:44:00,
2013-09-05 02:46:00,70.0,63.9,29.96,West,276,11.0,16.0,81,0.00,,,0.00,meteohub,2013-09-05 06:46:00,
2013-09-05 02:47:00,70.0,63.9,29.96,West,263,9.0,16.0,81,0.00,,,0.00,meteohub,2013-09-05 06:47:00,
2013-09-05 02:50:00,69.8,64.0,29.96,WSW,247,13.0,16.0,82,0.00,,,0.00,meteohub,2013-09-05 06:50:00,
2013-09-05 02:51:00,69.6,63.9,29.96,SW,229,14.0,16.0,82,0.00,,,0.00,meteohub,2013-09-05 06:51:00,
2013-09-05 02:52:00,69.6,63.9,29.96,WSW,246,12.0,16.0,82,0.00,,,0.00,meteohub,2013-09-05 06:52:00,
2013-09-05 02:56:00,69.6,63.9,29.96,SW,232,4.0,16.0,82,0.00,,,0.00,meteohub,2013-09-05 06:56:00,
2013-09-05 02:57:00,69.6,63.9,29.96,WSW,238,8.0,16.0,82,0.00,,,0.00,meteohub,2013-09-05 06:57:00,
2013-09-05 03:00:00,69.4,63.7,29.96,SW,236,10.0,16.0,82,0.00,,,0.00,meteohub,2013-09-05 07:00:00,
2013-09-05 03:01:00,69.4,63.7,29.96,WSW,238,8.0,16.0,82,0.00,,,0.00,meteohub,2013-09-05 07:01:00,
2013-09-05 03:03:00,69.4,64.0,29.96,WSW,254,8.0,16.0,83,0.00,,,0.00,meteohub,2013-09-05 07:03:00,
2013-09-05 03:04:00,69.3,63.5,29.96,West,261,7.0,16.0,82,0.00,,,0.00,meteohub,2013-09-05 07:04:00,
2013-09-05 03:06:00,69.3,63.5,29.96,SW,232,6.0,16.0,82,0.00,,,0.00,meteohub,2013-09-05 07:06:00,
2013-09-05 03:07:00,69.1,63.7,29.96,WSW,237,14.0,16.0,83,0.00,,,0.00,meteohub,2013-09-05 07:07:00,
2013-09-05 03:08:00,69.1,63.7,29.96,SW,227,8.0,16.0,83,0.00,,,0.00,meteohub,2013-09-05 07:08:00,
2013-09-05 03:09:00,68.9,63.5,29.96,WSW,250,9.0,16.0,83,0.00,,,0.00,meteohub,2013-09-05 07:09:00,
2013-09-05 03:11:00,68.7,63.3,29.96,WSW,244,8.0,16.0,83,0.00,,,0.00,meteohub,2013-09-05 07:11:00,
2013-09-05 03:12:00,68.7,63.3,29.96,West,280,9.0,16.0,83,0.00,,,0.00,meteohub,2013-09-05 07:12:00,
2013-09-05 03:13:00,68.7,63.3,29.96,West,264,9.0,16.0,83,0.00,,,0.00,meteohub,2013-09-05 07:13:00,
2013-09-05 03:14:00,68.5,63.1,29.96,WNW,298,7.0,16.0,83,0.00,,,0.00,meteohub,2013-09-05 07:14:00,
2013-09-05 03:16:00,68.5,63.1,29.96,WSW,242,6.0,16.0,83,0.00,,,0.00,meteohub,2013-09-05 07:16:00,
2013-09-05 03:17:00,68.5,63.1,29.96,SW,233,6.0,16.0,83,0.00,,,0.00,meteohub,2013-09-05 07:17:00,
2013-09-05 03:18:00,68.5,63.1,29.96,SW,232,7.0,16.0,83,0.00,,,0.00,meteohub,2013-09-05 07:18:00,
2013-09-05 03:19:00,68.5,63.1,29.96,WSW,244,8.0,16.0,83,0.00,,,0.00,meteohub,2013-09-05 07:19:00,
2013-09-05 03:21:00,68.4,63.3,29.96,WSW,256,8.0,14.0,84,0.00,,,0.00,meteohub,2013-09-05 07:21:00,
2013-09-05 03:22:00,68.5,63.5,29.96,SW,227,6.0,14.0,84,0.00,,,0.00,meteohub,2013-09-05 07:22:00,
2013-09-05 03:23:00,68.4,63.3,29.96,WSW,258,7.0,14.0,84,0.00,,,0.00,meteohub,2013-09-05 07:23:00,
2013-09-05 03:25:00,68.4,63.0,29.96,SW,225,10.0,14.0,83,0.00,,,0.00,meteohub,2013-09-05 07:25:00,
2013-09-05 03:26:00,68.4,63.0,29.96,SW,234,7.0,13.0,83,0.00,,,0.00,meteohub,2013-09-05 07:26:00,
2013-09-05 03:27:00,68.4,63.0,29.96,WSW,253,8.0,13.0,83,0.00,,,0.00,meteohub,2013-09-05 07:27:00,
2013-09-05 03:28:00,68.4,63.0,29.96,SW,232,6.0,13.0,83,0.00,,,0.00,meteohub,2013-09-05 07:28:00,
2013-09-05 03:29:00,68.4,63.0,29.96,WSW,242,9.0,13.0,83,0.00,,,0.00,meteohub,2013-09-05 07:29:00,
2013-09-05 03:30:00,68.4,63.0,29.95,SW,236,5.0,13.0,83,0.00,,,0.00,meteohub,2013-09-05 07:30:00,
2013-09-05 03:31:00,68.4,63.0,29.96,WSW,242,10.0,13.0,83,0.00,,,0.00,meteohub,2013-09-05 07:31:00,
2013-09-05 03:32:00,68.4,63.0,29.96,West,264,3.0,13.0,83,0.00,,,0.00,meteohub,2013-09-05 07:32:00,
2013-09-05 03:33:00,68.4,63.0,29.95,West,265,7.0,13.0,83,0.00,,,0.00,meteohub,2013-09-05 07:33:00,
2013-09-05 03:34:00,68.4,63.0,29.96,WSW,246,8.0,13.0,83,0.00,,,0.00,meteohub,2013-09-05 07:34:00,
2013-09-05 03:35:00,68.4,63.0,29.95,WSW,239,6.0,13.0,83,0.00,,,0.00,meteohub,2013-09-05 07:35:00,
2013-09-05 03:36:00,68.4,63.0,29.96,WSW,249,5.0,13.0,83,0.00,,,0.00,meteohub,2013-09-05 07:36:00,
2013-09-05 03:37:00,68.4,63.0,29.96,WSW,244,5.0,13.0,83,0.00,,,0.00,meteohub,2013-09-05 07:37:00,
2013-09-05 03:38:00,68.4,63.0,29.96,WSW,247,5.0,13.0,83,0.00,,,0.00,meteohub,2013-09-05 07:38:00,
2013-09-05 03:40:00,68.4,63.0,29.96,WSW,257,8.0,13.0,83,0.00,,,0.00,meteohub,2013-09-05 07:40:00,
2013-09-05 03:42:00,68.4,63.0,29.96,SW,233,4.0,13.0,83,0.00,,,0.00,meteohub,2013-09-05 07:42:00,
2013-09-05 03:43:00,68.4,63.0,29.96,WSW,246,7.0,13.0,83,0.00,,,0.00,meteohub,2013-09-05 07:43:00,
2013-09-05 03:44:00,68.4,63.0,29.96,West,281,4.0,13.0,83,0.00,,,0.00,meteohub,2013-09-05 07:44:00,
2013-09-05 03:45:00,68.4,63.0,29.96,WSW,244,5.0,13.0,83,0.00,,,0.00,meteohub,2013-09-05 07:45:00,
2013-09-05 03:46:00,68.2,62.8,29.96,West,265,8.0,13.0,83,0.00,,,0.00,meteohub,2013-09-05 07:46:00,
2013-09-05 03:47:00,68.2,62.8,29.96,WSW,237,6.0,13.0,83,0.00,,,0.00,meteohub,2013-09-05 07:47:00,
2013-09-05 03:49:00,68.2,62.8,29.96,SW,235,7.0,13.0,83,0.00,,,0.00,meteohub,2013-09-05 07:49:00,
2013-09-05 03:50:00,68.2,62.8,29.96,West,276,3.0,12.0,83,0.00,,,0.00,meteohub,2013-09-05 07:50:00,
2013-09-05 03:51:00,68.2,62.8,29.96,WSW,244,2.0,12.0,83,0.00,,,0.00,meteohub,2013-09-05 07:51:00,
2013-09-05 03:52:00,68.2,62.8,29.96,WSW,252,4.0,12.0,83,0.00,,,0.00,meteohub,2013-09-05 07:52:00,
2013-09-05 03:53:00,68.2,62.8,29.96,SW,231,6.0,12.0,83,0.00,,,0.00,meteohub,2013-09-05 07:53:00,
2013-09-05 03:54:00,68.2,62.4,29.96,WSW,242,3.0,12.0,82,0.00,,,0.00,meteohub,2013-09-05 07:54:00,
2013-09-05 03:55:00,68.2,62.4,29.96,WSW,256,10.0,12.0,82,0.00,,,0.00,meteohub,2013-09-05 07:55:00,
2013-09-05 03:56:00,68.2,62.4,29.96,WSW,240,4.0,12.0,82,0.00,,,0.00,meteohub,2013-09-05 07:56:00,
2013-09-05 03:58:00,68.2,62.4,29.96,SW,214,3.0,12.0,82,0.00,,,0.00,meteohub,2013-09-05 07:58:00,
2013-09-05 03:59:00,68.2,62.4,29.96,West,275,11.0,12.0,82,0.00,,,0.00,meteohub,2013-09-05 07:59:00,
2013-09-05 04:00:00,68.2,62.4,29.96,WSW,255,5.0,11.0,82,0.00,,,0.00,meteohub,2013-09-05 08:00:00,
2013-09-05 04:02:00,68.0,62.2,29.96,WNW,287,7.0,11.0,82,0.00,,,0.00,meteohub,2013-09-05 08:02:00,
2013-09-05 04:04:00,68.0,62.2,29.96,WSW,238,8.0,11.0,82,0.00,,,0.00,meteohub,2013-09-05 08:04:00,
2013-09-05 04:05:00,68.0,62.2,29.95,West,260,4.0,11.0,82,0.00,,,0.00,meteohub,2013-09-05 08:05:00,
2013-09-05 04:06:00,68.0,62.2,29.96,West,271,4.0,11.0,82,0.00,,,0.00,meteohub,2013-09-05 08:06:00,
2013-09-05 04:07:00,67.8,62.1,29.96,West,263,4.0,11.0,82,0.00,,,0.00,meteohub,2013-09-05 08:07:00,
2013-09-05 04:09:00,67.8,62.4,29.96,WSW,244,5.0,11.0,83,0.00,,,0.00,meteohub,2013-09-05 08:09:00,
2013-09-05 04:10:00,67.8,62.4,29.96,WSW,238,4.0,11.0,83,0.00,,,0.00,meteohub,2013-09-05 08:10:00,
2013-09-05 04:11:00,67.8,62.4,29.96,West,269,3.0,11.0,83,0.00,,,0.00,meteohub,2013-09-05 08:11:00,
2013-09-05 04:12:00,67.8,62.4,29.96,WNW,297,8.0,11.0,83,0.00,,,0.00,meteohub,2013-09-05 08:12:00,
2013-09-05 04:13:00,67.8,62.4,29.96,SW,232,12.0,12.0,83,0.00,,,0.00,meteohub,2013-09-05 08:13:00,
2013-09-05 04:15:00,67.8,62.4,29.96,WNW,290,5.0,11.0,83,0.00,,,0.00,meteohub,2013-09-05 08:15:00,
2013-09-05 04:16:00,67.8,62.4,29.96,West,261,7.0,11.0,83,0.00,,,0.00,meteohub,2013-09-05 08:16:00,
2013-09-05 04:17:00,67.8,62.4,29.96,WNW,284,4.0,11.0,83,0.00,,,0.00,meteohub,2013-09-05 08:17:00,
2013-09-05 04:18:00,67.8,62.4,29.96,WSW,248,5.0,11.0,83,0.00,,,0.00,meteohub,2013-09-05 08:18:00,
2013-09-05 04:21:00,67.6,62.2,29.96,West,265,0.0,12.0,83,0.00,,,0.00,meteohub,2013-09-05 08:21:00,
2013-09-05 04:23:00,67.6,62.6,29.95,West,281,4.0,12.0,84,0.00,,,0.00,meteohub,2013-09-05 08:23:00,
2013-09-05 04:24:00,67.6,62.6,29.95,West,261,2.0,12.0,84,0.00,,,0.00,meteohub,2013-09-05 08:24:00,
2013-09-05 04:25:00,67.6,62.2,29.95,West,263,7.0,12.0,83,0.00,,,0.00,meteohub,2013-09-05 08:25:00,
2013-09-05 04:26:00,67.6,62.6,29.96,WSW,248,5.0,12.0,84,0.00,,,0.00,meteohub,2013-09-05 08:26:00,
2013-09-05 04:27:00,67.6,62.6,29.96,West,266,2.0,12.0,84,0.00,,,0.00,meteohub,2013-09-05 08:27:00,
2013-09-05 04:28:00,67.6,62.6,29.96,West,279,2.0,12.0,84,0.00,,,0.00,meteohub,2013-09-05 08:28:00,
2013-09-05 04:30:00,67.5,62.4,29.96,WSW,258,2.0,10.0,84,0.00,,,0.00,meteohub,2013-09-05 08:30:00,
2013-09-05 04:31:00,67.5,62.4,29.96,West,265,4.0,10.0,84,0.00,,,0.00,meteohub,2013-09-05 08:31:00,
2013-09-05 04:32:00,67.5,62.4,29.96,NW,305,3.0,10.0,84,0.00,,,0.00,meteohub,2013-09-05 08:32:00,
2013-09-05 04:33:00,67.3,61.9,29.95,WNW,288,2.0,10.0,83,0.00,,,0.00,meteohub,2013-09-05 08:33:00,
2013-09-05 04:36:00,67.1,61.7,29.95,West,279,4.0,9.0,83,0.00,,,0.00,meteohub,2013-09-05 08:36:00,
2013-09-05 04:37:00,67.1,61.7,29.95,West,281,4.0,9.0,83,0.00,,,0.00,meteohub,2013-09-05 08:37:00,
2013-09-05 04:38:00,66.9,61.9,29.96,West,281,4.0,9.0,84,0.00,,,0.00,meteohub,2013-09-05 08:38:00,
2013-09-05 04:39:00,66.9,61.9,29.96,West,271,7.0,9.0,84,0.00,,,0.00,meteohub,2013-09-05 08:39:00,
2013-09-05 04:41:00,66.9,61.9,29.95,WNW,284,4.0,9.0,84,0.00,,,0.00,meteohub,2013-09-05 08:41:00,
2013-09-05 04:42:00,66.9,61.9,29.95,West,263,6.0,9.0,84,0.00,,,0.00,meteohub,2013-09-05 08:42:00,
2013-09-05 04:44:00,66.9,61.9,29.96,WSW,246,3.0,9.0,84,0.00,,,0.00,meteohub,2013-09-05 08:44:00,
2013-09-05 04:46:00,67.1,62.1,29.96,WSW,253,2.0,9.0,84,0.00,,,0.00,meteohub,2013-09-05 08:46:00,
2013-09-05 04:47:00,67.1,62.1,29.96,West,261,2.0,9.0,84,0.00,,,0.00,meteohub,2013-09-05 08:47:00,
2013-09-05 04:49:00,67.3,62.2,29.96,West,275,8.0,9.0,84,0.00,,,0.00,meteohub,2013-09-05 08:49:00,
2013-09-05 04:50:00,67.3,62.2,29.96,West,261,4.0,9.0,84,0.00,,,0.00,meteohub,2013-09-05 08:50:00,
2013-09-05 04:51:00,67.3,62.2,29.96,WSW,258,4.0,9.0,84,0.00,,,0.00,meteohub,2013-09-05 08:51:00,
2013-09-05 04:52:00,67.3,61.9,29.96,WSW,241,3.0,9.0,83,0.00,,,0.00,meteohub,2013-09-05 08:52:00,
2013-09-05 04:53:00,67.3,61.9,29.96,West,273,3.0,9.0,83,0.00,,,0.00,meteohub,2013-09-05 08:53:00,
2013-09-05 04:54:00,67.3,61.9,29.96,WSW,248,8.0,9.0,83,0.00,,,0.00,meteohub,2013-09-05 08:54:00,
2013-09-05 04:55:00,67.3,61.9,29.96,West,272,4.0,9.0,83,0.00,,,0.00,meteohub,2013-09-05 08:55:00,
2013-09-05 04:56:00,67.5,62.1,29.96,WSW,252,3.0,9.0,83,0.00,,,0.00,meteohub,2013-09-05 08:56:00,
2013-09-05 04:57:00,67.3,61.9,29.96,WSW,243,5.0,9.0,83,0.00,,,0.00,meteohub,2013-09-05 08:57:00,
2013-09-05 04:58:00,67.3,61.9,29.96,WNW,287,7.0,9.0,83,0.00,,,0.00,meteohub,2013-09-05 08:58:00,
2013-09-05 05:00:00,67.3,61.5,29.96,WSW,257,4.0,9.0,82,0.00,,,0.00,meteohub,2013-09-05 09:00:00,
2013-09-05 05:02:00,67.3,61.5,29.96,West,269,4.0,9.0,82,0.00,,,0.00,meteohub,2013-09-05 09:02:00,
2013-09-05 05:03:00,67.3,61.5,29.96,West,271,3.0,9.0,82,0.00,,,0.00,meteohub,2013-09-05 09:03:00,
2013-09-05 05:05:00,67.3,61.9,29.96,SW,233,4.0,9.0,83,0.00,,,0.00,meteohub,2013-09-05 09:05:00,
2013-09-05 05:07:00,67.3,61.9,29.96,WNW,292,3.0,10.0,83,0.00,,,0.00,meteohub,2013-09-05 09:07:00,
2013-09-05 05:08:00,67.3,61.9,29.96,WNW,292,7.0,10.0,83,0.00,,,0.00,meteohub,2013-09-05 09:08:00,
2013-09-05 05:09:00,67.3,61.9,29.96,West,269,4.0,10.0,83,0.00,,,0.00,meteohub,2013-09-05 09:09:00,
2013-09-05 05:10:00,67.1,61.7,29.96,WSW,238,2.0,10.0,83,0.00,,,0.00,meteohub,2013-09-05 09:10:00,
2013-09-05 05:11:00,67.1,61.7,29.96,West,278,2.0,10.0,83,0.00,,,0.00,meteohub,2013-09-05 09:11:00,
2013-09-05 05:12:00,67.1,61.7,29.96,WNW,286,3.0,10.0,83,0.00,,,0.00,meteohub,2013-09-05 09:12:00,
2013-09-05 05:14:00,66.9,61.5,29.96,West,275,4.0,10.0,83,0.00,,,0.00,meteohub,2013-09-05 09:14:00,
2013-09-05 05:16:00,66.7,61.7,29.96,West,263,3.0,9.0,84,0.00,,,0.00,meteohub,2013-09-05 09:16:00,
2013-09-05 05:17:00,66.7,61.7,29.96,WSW,240,8.0,9.0,84,0.00,,,0.00,meteohub,2013-09-05 09:17:00,
2013-09-05 05:19:00,66.7,61.7,29.96,WSW,253,1.0,9.0,84,0.00,,,0.00,meteohub,2013-09-05 09:19:00,
2013-09-05 05:21:00,66.7,61.7,29.96,West,261,2.0,9.0,84,0.00,,,0.00,meteohub,2013-09-05 09:21:00,
2013-09-05 05:22:00,66.7,61.7,29.96,SW,230,3.0,9.0,84,0.00,,,0.00,meteohub,2013-09-05 09:22:00,
2013-09-05 05:24:00,66.7,61.7,29.96,WSW,244,7.0,9.0,84,0.00,,,0.00,meteohub,2013-09-05 09:24:00,
2013-09-05 05:26:00,66.7,61.7,29.96,WNW,290,5.0,9.0,84,0.00,,,0.00,meteohub,2013-09-05 09:26:00,
2013-09-05 05:27:00,66.7,61.7,29.96,West,273,7.0,9.0,84,0.00,,,0.00,meteohub,2013-09-05 09:27:00,
2013-09-05 05:29:00,66.7,61.7,29.96,WSW,242,6.0,9.0,84,0.00,,,0.00,meteohub,2013-09-05 09:29:00,
2013-09-05 05:32:00,66.7,61.7,29.96,West,268,9.0,11.0,84,0.00,,,0.00,meteohub,2013-09-05 09:32:00,
2013-09-05 05:33:00,66.7,61.7,29.96,SW,225,4.0,11.0,84,0.00,,,0.00,meteohub,2013-09-05 09:33:00,
2013-09-05 05:34:00,66.7,61.7,29.96,WSW,242,3.0,11.0,84,0.00,,,0.00,meteohub,2013-09-05 09:34:00,
2013-09-05 05:37:00,66.7,61.7,29.96,WNW,298,5.0,11.0,84,0.00,,,0.00,meteohub,2013-09-05 09:37:00,
2013-09-05 05:38:00,66.7,61.7,29.96,WSW,238,8.0,11.0,84,0.00,,,0.00,meteohub,2013-09-05 09:38:00,
2013-09-05 05:39:00,66.7,61.7,29.96,SW,234,7.0,11.0,84,0.00,,,0.00,meteohub,2013-09-05 09:39:00,
2013-09-05 05:42:00,66.7,61.7,29.96,West,261,2.0,10.0,84,0.00,,,0.00,meteohub,2013-09-05 09:42:00,
2013-09-05 05:43:00,66.7,61.7,29.96,WSW,242,6.0,10.0,84,0.00,,,0.00,meteohub,2013-09-05 09:43:00,
2013-09-05 05:44:00,66.7,61.3,29.96,SW,236,5.0,10.0,83,0.00,,,0.00,meteohub,2013-09-05 09:44:00,
2013-09-05 05:47:00,66.7,61.3,29.96,WSW,248,5.0,10.0,83,0.00,,,0.00,meteohub,2013-09-05 09:47:00,
2013-09-05 05:48:00,66.7,61.3,29.96,West,279,7.0,10.0,83,0.00,,,0.00,meteohub,2013-09-05 09:48:00,
2013-09-05 05:49:00,66.7,61.7,29.96,West,271,3.0,10.0,84,0.00,,,0.00,meteohub,2013-09-05 09:49:00,
2013-09-05 05:50:00,66.7,61.7,29.96,WNW,286,7.0,10.0,84,0.00,,,0.00,meteohub,2013-09-05 09:50:00,
2013-09-05 05:52:00,66.7,61.7,29.96,West,266,7.0,11.0,84,0.00,,,0.00,meteohub,2013-09-05 09:52:00,
2013-09-05 05:53:00,66.7,61.7,29.97,WNW,291,5.0,11.0,84,0.00,,,0.00,meteohub,2013-09-05 09:53:00,
2013-09-05 05:55:00,66.6,61.5,29.96,WNW,288,3.0,11.0,84,0.00,,,0.00,meteohub,2013-09-05 09:55:00,
2013-09-05 05:56:00,66.6,61.5,29.97,WNW,285,8.0,11.0,84,0.00,,,0.00,meteohub,2013-09-05 09:56:00,
2013-09-05 05:58:00,66.2,61.2,29.97,WSW,258,3.0,11.0,84,0.00,,,0.00,meteohub,2013-09-05 09:58:00,
2013-09-05 05:59:00,66.2,61.2,29.97,WNW,285,3.0,11.0,84,0.00,,,0.00,meteohub,2013-09-05 09:59:00,
2013-09-05 06:00:00,66.0,61.3,29.97,WNW,296,3.0,11.0,85,0.00,,,0.00,meteohub,2013-09-05 10:00:00,
2013-09-05 06:02:00,65.8,61.2,29.97,WNW,283,4.0,11.0,85,0.00,,,0.00,meteohub,2013-09-05 10:02:00,
2013-09-05 06:03:00,65.8,61.2,29.97,WNW,282,8.0,11.0,85,0.00,,,0.00,meteohub,2013-09-05 10:03:00,
2013-09-05 06:04:00,65.8,61.2,29.97,West,259,6.0,11.0,85,0.00,,,0.00,meteohub,2013-09-05 10:04:00,
2013-09-05 06:05:00,65.8,61.2,29.96,West,275,6.0,10.0,85,0.00,,,0.00,meteohub,2013-09-05 10:05:00,
2013-09-05 06:06:00,65.8,61.2,29.96,West,274,2.0,10.0,85,0.00,,,0.00,meteohub,2013-09-05 10:06:00,
2013-09-05 06:08:00,65.8,61.5,29.97,WSW,253,2.0,10.0,86,0.00,,,0.00,meteohub,2013-09-05 10:08:00,
2013-09-05 06:09:00,65.8,61.5,29.96,West,275,4.0,10.0,86,0.00,,,0.00,meteohub,2013-09-05 10:09:00,
2013-09-05 06:12:00,65.8,61.5,29.96,WSW,251,8.0,11.0,86,0.00,,,0.00,meteohub,2013-09-05 10:12:00,
2013-09-05 06:13:00,65.8,61.5,29.96,West,270,4.0,11.0,86,0.00,,,0.00,meteohub,2013-09-05 10:13:00,
2013-09-05 06:14:00,65.8,61.5,29.96,WSW,254,4.0,11.0,86,0.00,,,0.00,meteohub,2013-09-05 10:14:00,
2013-09-05 06:17:00,66.0,61.7,29.96,West,281,3.0,11.0,86,0.00,,,0.00,meteohub,2013-09-05 10:17:00,
2013-09-05 06:18:00,66.0,61.7,29.97,WNW,282,6.0,11.0,86,0.00,,,0.00,meteohub,2013-09-05 10:18:00,
2013-09-05 06:19:00,66.0,61.7,29.97,WNW,294,3.0,11.0,86,0.00,,,0.00,meteohub,2013-09-05 10:19:00,
2013-09-05 06:21:00,66.2,61.9,29.97,West,280,2.0,11.0,86,0.00,,,0.00,meteohub,2013-09-05 10:21:00,
2013-09-05 06:22:00,66.4,61.7,29.97,WNW,291,7.0,11.0,85,0.00,,,0.00,meteohub,2013-09-05 10:22:00,
2013-09-05 06:23:00,66.2,61.5,29.96,West,261,6.0,11.0,85,0.00,,,0.00,meteohub,2013-09-05 10:23:00,
2013-09-05 06:24:00,66.2,61.5,29.96,NW,304,8.0,11.0,85,0.00,,,0.00,meteohub,2013-09-05 10:24:00,
2013-09-05 06:25:00,66.2,61.5,29.96,West,270,7.0,11.0,85,0.00,,,0.00,meteohub,2013-09-05 10:25:00,
2013-09-05 06:28:00,65.8,61.2,29.97,WNW,296,3.0,9.0,85,0.00,,,0.00,meteohub,2013-09-05 10:28:00,
2013-09-05 06:29:00,65.8,61.2,29.96,WSW,258,3.0,9.0,85,0.00,,,0.00,meteohub,2013-09-05 10:29:00,
2013-09-05 06:30:00,65.8,61.2,29.96,WNW,285,6.0,9.0,85,0.00,,,0.00,meteohub,2013-09-05 10:30:00,
2013-09-05 06:33:00,65.7,61.0,29.97,WNW,282,2.0,9.0,85,0.00,,,0.00,meteohub,2013-09-05 10:33:00,
2013-09-05 06:34:00,65.7,61.0,29.97,WNW,286,2.0,9.0,85,0.00,,,0.00,meteohub,2013-09-05 10:34:00,
2013-09-05 06:35:00,65.7,61.0,29.96,WNW,288,4.0,9.0,85,0.00,,,0.00,meteohub,2013-09-05 10:35:00,
2013-09-05 06:36:00,65.8,61.2,29.97,WSW,249,3.0,9.0,85,0.00,,,0.00,meteohub,2013-09-05 10:36:00,
2013-09-05 06:39:00,65.8,61.2,29.97,WNW,286,2.0,9.0,85,0.00,,,0.00,meteohub,2013-09-05 10:39:00,
2013-09-05 06:40:00,65.8,61.2,29.97,WSW,246,9.0,9.0,85,0.00,,,0.00,meteohub,2013-09-05 10:40:00,
2013-09-05 06:41:00,65.8,61.2,29.97,West,277,2.0,9.0,85,0.00,,,0.00,meteohub,2013-09-05 10:41:00,
2013-09-05 06:42:00,66.0,61.3,29.97,WSW,244,7.0,9.0,85,0.00,,,0.00,meteohub,2013-09-05 10:42:00,
2013-09-05 06:44:00,66.0,61.3,29.97,West,261,6.0,9.0,85,0.00,,,0.00,meteohub,2013-09-05 10:44:00,
2013-09-05 06:45:00,66.2,61.5,29.97,WNW,286,11.0,12.0,85,0.00,,,0.00,meteohub,2013-09-05 10:45:00,
2013-09-05 06:46:00,66.2,61.5,29.97,West,281,3.0,12.0,85,0.00,,,0.00,meteohub,2013-09-05 10:46:00,
2013-09-05 06:47:00,66.4,61.7,29.97,WNW,296,4.0,12.0,85,0.00,,,0.00,meteohub,2013-09-05 10:47:00,
2013-09-05 06:48:00,66.4,61.7,29.97,WSW,252,4.0,12.0,85,0.00,,,0.00,meteohub,2013-09-05 10:48:00,
2013-09-05 06:49:00,66.4,61.7,29.97,WNW,290,2.0,12.0,85,0.00,,,0.00,meteohub,2013-09-05 10:49:00,
2013-09-05 06:50:00,66.4,61.7,29.97,WNW,303,5.0,12.0,85,0.00,,,0.00,meteohub,2013-09-05 10:50:00,
2013-09-05 06:51:00,66.4,61.3,29.97,WNW,294,5.0,12.0,84,0.00,,,0.00,meteohub,2013-09-05 10:51:00,
2013-09-05 06:52:00,66.4,61.3,29.97,WNW,286,7.0,12.0,84,0.00,,,0.00,meteohub,2013-09-05 10:52:00,
2013-09-05 06:54:00,66.4,61.3,29.97,West,273,9.0,12.0,84,0.00,,,0.00,meteohub,2013-09-05 10:54:00,
2013-09-05 06:56:00,66.0,61.0,29.98,WNW,299,3.0,12.0,84,0.00,,,0.00,meteohub,2013-09-05 10:56:00,
2013-09-05 06:57:00,66.0,61.0,29.97,West,260,7.0,12.0,84,0.00,,,0.00,meteohub,2013-09-05 10:57:00,
2013-09-05 06:58:00,65.8,60.8,29.98,West,269,2.0,12.0,84,0.00,,,0.00,meteohub,2013-09-05 10:58:00,
2013-09-05 06:59:00,65.8,60.8,29.98,West,279,8.0,12.0,84,0.00,,,0.00,meteohub,2013-09-05 10:59:00,
2013-09-05 07:01:00,65.8,60.8,29.97,WNW,290,5.0,12.0,84,0.00,,,0.00,meteohub,2013-09-05 11:01:00,
2013-09-05 07:02:00,65.8,60.8,29.97,WSW,244,12.0,12.0,84,0.00,,,0.00,meteohub,2013-09-05 11:02:00,
2013-09-05 07:03:00,65.8,60.8,29.98,West,274,4.0,12.0,84,0.00,,,0.00,meteohub,2013-09-05 11:03:00,
2013-09-05 07:05:00,65.7,60.6,29.98,WNW,282,4.0,12.0,84,0.00,,,0.00,meteohub,2013-09-05 11:05:00,
2013-09-05 07:06:00,65.7,60.6,29.97,West,280,3.0,12.0,84,0.00,,,0.00,meteohub,2013-09-05 11:06:00,
2013-09-05 07:08:00,65.7,60.6,29.97,WSW,245,3.0,12.0,84,0.00,,,0.00,meteohub,2013-09-05 11:08:00,
2013-09-05 07:09:00,65.7,60.6,29.97,West,269,3.0,12.0,84,0.00,,,0.00,meteohub,2013-09-05 11:09:00,
2013-09-05 07:10:00,65.8,60.8,29.97,WSW,250,3.0,12.0,84,0.00,,,0.00,meteohub,2013-09-05 11:10:00,
2013-09-05 07:11:00,65.8,60.8,29.97,West,269,4.0,12.0,84,0.00,,,0.00,meteohub,2013-09-05 11:11:00,
2013-09-05 07:13:00,65.8,60.8,29.97,West,265,6.0,12.0,84,0.00,,,0.00,meteohub,2013-09-05 11:13:00,
2013-09-05 07:14:00,65.8,60.8,29.97,West,272,7.0,12.0,84,0.00,,,0.00,meteohub,2013-09-05 11:14:00,
2013-09-05 07:15:00,66.0,61.0,29.97,West,275,2.0,12.0,84,0.00,,,0.00,meteohub,2013-09-05 11:15:00,
2013-09-05 07:17:00,66.0,61.0,29.97,WNW,285,7.0,12.0,84,0.00,,,0.00,meteohub,2013-09-05 11:17:00,
2013-09-05 07:18:00,66.4,61.3,29.97,NW,304,3.0,12.0,84,0.00,,,0.00,meteohub,2013-09-05 11:18:00,
2013-09-05 07:19:00,66.4,61.3,29.97,West,261,8.0,12.0,84,0.00,,,0.00,meteohub,2013-09-05 11:19:00,
2013-09-05 07:20:00,66.4,61.0,29.97,WNW,290,3.0,12.0,83,0.00,,,0.00,meteohub,2013-09-05 11:20:00,
2013-09-05 07:21:00,66.4,61.0,29.97,WSW,254,11.0,12.0,83,0.00,,,0.00,meteohub,2013-09-05 11:21:00,
2013-09-05 07:22:00,66.6,61.2,29.97,West,259,10.0,12.0,83,0.00,,,0.00,meteohub,2013-09-05 11:22:00,
2013-09-05 07:24:00,66.6,61.2,29.97,WSW,244,3.0,12.0,83,0.00,,,0.00,meteohub,2013-09-05 11:24:00,
2013-09-05 07:25:00,66.6,61.2,29.97,WSW,249,3.0,13.0,83,0.00,,,0.00,meteohub,2013-09-05 11:25:00,
2013-09-05 07:26:00,66.6,61.2,29.97,West,259,8.0,13.0,83,0.00,,,0.00,meteohub,2013-09-05 11:26:00,
2013-09-05 07:27:00,66.6,61.2,29.97,WNW,288,3.0,13.0,83,0.00,,,0.00,meteohub,2013-09-05 11:27:00,
2013-09-05 07:30:00,66.7,61.3,29.97,WSW,246,3.0,13.0,83,0.00,,,0.00,meteohub,2013-09-05 11:30:00,
2013-09-05 07:31:00,66.6,61.2,29.97,WNW,288,8.0,13.0,83,0.00,,,0.00,meteohub,2013-09-05 11:31:00,
2013-09-05 07:32:00,66.7,61.3,29.97,WNW,287,4.0,13.0,83,0.00,,,0.00,meteohub,2013-09-05 11:32:00,
2013-09-05 07:33:00,66.7,61.3,29.97,WSW,242,4.0,13.0,83,0.00,,,0.00,meteohub,2013-09-05 11:33:00,
2013-09-05 07:35:00,66.7,61.3,29.97,WNW,298,4.0,13.0,83,0.00,,,0.00,meteohub,2013-09-05 11:35:00,
2013-09-05 07:36:00,66.7,61.3,29.97,WSW,240,5.0,13.0,83,0.00,,,0.00,meteohub,2013-09-05 11:36:00,
2013-09-05 07:37:00,66.7,61.3,29.98,West,261,2.0,13.0,83,0.00,,,0.00,meteohub,2013-09-05 11:37:00,
2013-09-05 07:38:00,66.7,61.3,29.97,WSW,242,4.0,13.0,83,0.00,,,0.00,meteohub,2013-09-05 11:38:00,
2013-09-05 07:40:00,66.9,61.5,29.98,WNW,301,7.0,12.0,83,0.00,,,0.00,meteohub,2013-09-05 11:40:00,
2013-09-05 07:42:00,67.1,61.7,29.98,WNW,295,1.0,12.0,83,0.00,,,0.00,meteohub,2013-09-05 11:42:00,
2013-09-05 07:44:00,67.3,61.5,29.98,WSW,254,3.0,12.0,82,0.00,,,0.00,meteohub,2013-09-05 11:44:00,
2013-09-05 07:45:00,67.3,61.5,29.97,West,261,8.0,12.0,82,0.00,,,0.00,meteohub,2013-09-05 11:45:00,
2013-09-05 07:46:00,67.5,61.7,29.97,NW,317,3.0,12.0,82,0.00,,,0.00,meteohub,2013-09-05 11:46:00,
2013-09-05 07:47:00,67.5,61.7,29.97,SW,223,6.0,12.0,82,0.00,,,0.00,meteohub,2013-09-05 11:47:00,
2013-09-05 07:49:00,67.6,61.9,29.97,West,279,1.0,12.0,82,0.00,,,0.00,meteohub,2013-09-05 11:49:00,
2013-09-05 07:51:00,67.6,61.9,29.97,West,273,3.0,12.0,82,0.00,,,0.00,meteohub,2013-09-05 11:51:00,
2013-09-05 07:52:00,67.6,61.9,29.97,West,279,3.0,12.0,82,0.00,,,0.00,meteohub,2013-09-05 11:52:00,
2013-09-05 07:53:00,67.8,61.7,29.97,WNW,294,8.0,12.0,81,0.00,,,0.00,meteohub,2013-09-05 11:53:00,
2013-09-05 07:55:00,67.8,61.7,29.97,West,267,7.0,12.0,81,0.00,,,0.00,meteohub,2013-09-05 11:55:00,
2013-09-05 07:57:00,68.0,61.9,29.97,West,268,4.0,12.0,81,0.00,,,0.00,meteohub,2013-09-05 11:57:00,
2013-09-05 07:58:00,68.2,62.1,29.97,West,261,2.0,12.0,81,0.00,,,0.00,meteohub,2013-09-05 11:58:00,
2013-09-05 07:59:00,68.2,61.7,29.97,WNW,302,2.0,12.0,80,0.00,,,0.00,meteohub,2013-09-05 11:59:00,
2013-09-05 08:00:00,68.2,61.7,29.97,WNW,292,3.0,12.0,80,0.00,,,0.00,meteohub,2013-09-05 12:00:00,
2013-09-05 08:02:00,68.4,61.9,29.97,WNW,292,3.0,12.0,80,0.00,,,0.00,meteohub,2013-09-05 12:02:00,
2013-09-05 08:04:00,68.4,61.9,29.97,West,259,8.0,12.0,80,0.00,,,0.00,meteohub,2013-09-05 12:04:00,
2013-09-05 08:06:00,68.5,62.1,29.97,NW,308,5.0,9.0,80,0.00,,,0.00,meteohub,2013-09-05 12:06:00,
2013-09-05 08:07:00,68.5,62.1,29.97,SW,234,7.0,9.0,80,0.00,,,0.00,meteohub,2013-09-05 12:07:00,
2013-09-05 08:09:00,68.7,61.9,29.97,SW,218,7.0,9.0,79,0.00,,,0.00,meteohub,2013-09-05 12:09:00,
2013-09-05 08:10:00,68.7,61.9,29.97,WSW,246,5.0,11.0,79,0.00,,,0.00,meteohub,2013-09-05 12:10:00,
2013-09-05 08:11:00,68.7,61.9,29.97,WSW,240,4.0,11.0,79,0.00,,,0.00,meteohub,2013-09-05 12:11:00,
2013-09-05 08:12:00,68.7,61.9,29.97,West,259,7.0,11.0,79,0.00,,,0.00,meteohub,2013-09-05 12:12:00,
2013-09-05 08:14:00,68.9,61.7,29.97,West,271,8.0,11.0,78,0.00,,,0.00,meteohub,2013-09-05 12:14:00,
2013-09-05 08:15:00,68.9,61.7,29.97,West,273,4.0,12.0,78,0.00,,,0.00,meteohub,2013-09-05 12:15:00,
2013-09-05 08:17:00,69.1,61.9,29.97,WSW,240,3.0,12.0,78,0.00,,,0.00,meteohub,2013-09-05 12:17:00,
2013-09-05 08:18:00,69.1,61.9,29.97,West,264,10.0,12.0,78,0.00,,,0.00,meteohub,2013-09-05 12:18:00,
2013-09-05 08:19:00,69.1,61.9,29.97,WNW,299,9.0,12.0,78,0.00,,,0.00,meteohub,2013-09-05 12:19:00,
2013-09-05 08:22:00,69.3,62.1,29.97,WNW,286,3.0,12.0,78,0.00,,,0.00,meteohub,2013-09-05 12:22:00,
2013-09-05 08:23:00,69.3,61.7,29.97,West,267,4.0,12.0,77,0.00,,,0.00,meteohub,2013-09-05 12:23:00,
2013-09-05 08:24:00,69.4,61.9,29.97,WNW,302,5.0,12.0,77,0.00,,,0.00,meteohub,2013-09-05 12:24:00,
2013-09-05 08:25:00,69.4,61.9,29.97,WNW,294,10.0,13.0,77,0.00,,,0.00,meteohub,2013-09-05 12:25:00,
2013-09-05 08:27:00,69.6,62.1,29.97,West,271,4.0,13.0,77,0.00,,,0.00,meteohub,2013-09-05 12:27:00,
2013-09-05 08:28:00,69.6,62.1,29.97,West,274,1.0,13.0,77,0.00,,,0.00,meteohub,2013-09-05 12:28:00,
2013-09-05 08:29:00,70.0,62.1,29.97,West,281,6.0,13.0,76,0.00,,,0.00,meteohub,2013-09-05 12:29:00,
2013-09-05 08:30:00,70.0,62.1,29.97,West,278,4.0,13.0,76,0.00,,,0.00,meteohub,2013-09-05 12:30:00,
2013-09-05 08:32:00,70.2,62.2,29.97,SW,227,6.0,13.0,76,0.00,,,0.00,meteohub,2013-09-05 12:32:00,
2013-09-05 08:34:00,70.2,61.9,29.97,West,277,9.0,13.0,75,0.00,,,0.00,meteohub,2013-09-05 12:34:00,
2013-09-05 08:35:00,70.2,61.9,29.97,West,261,6.0,12.0,75,0.00,,,0.00,meteohub,2013-09-05 12:35:00,
2013-09-05 08:36:00,70.2,61.9,29.97,WNW,289,9.0,12.0,75,0.00,,,0.00,meteohub,2013-09-05 12:36:00,
2013-09-05 08:38:00,70.3,62.1,29.97,West,273,6.0,12.0,75,0.00,,,0.00,meteohub,2013-09-05 12:38:00,
2013-09-05 08:40:00,70.3,62.1,29.97,NW,305,5.0,12.0,75,0.00,,,0.00,meteohub,2013-09-05 12:40:00,
2013-09-05 08:41:00,70.5,62.2,29.97,WSW,246,3.0,12.0,75,0.00,,,0.00,meteohub,2013-09-05 12:41:00,
2013-09-05 08:43:00,70.5,62.2,29.97,West,275,8.0,12.0,75,0.00,,,0.00,meteohub,2013-09-05 12:43:00,
2013-09-05 08:44:00,70.7,62.4,29.98,West,273,2.0,12.0,75,0.00,,,0.00,meteohub,2013-09-05 12:44:00,
2013-09-05 08:46:00,70.9,62.6,29.97,West,273,8.0,12.0,75,0.00,,,0.00,meteohub,2013-09-05 12:46:00,
2013-09-05 08:47:00,70.9,62.2,29.97,WSW,252,5.0,12.0,74,0.00,,,0.00,meteohub,2013-09-05 12:47:00,
2013-09-05 08:48:00,70.9,62.2,29.97,West,281,10.0,12.0,74,0.00,,,0.00,meteohub,2013-09-05 12:48:00,
2013-09-05 08:49:00,71.1,62.4,29.97,West,270,7.0,12.0,74,0.00,,,0.00,meteohub,2013-09-05 12:49:00,
2013-09-05 08:50:00,71.1,62.4,29.97,West,275,6.0,12.0,74,0.00,,,0.00,meteohub,2013-09-05 12:50:00,
2013-09-05 08:51:00,71.1,61.9,29.97,WNW,296,5.0,14.0,73,0.00,,,0.00,meteohub,2013-09-05 12:51:00,
2013-09-05 08:52:00,71.2,62.1,29.98,West,278,6.0,14.0,73,0.00,,,0.00,meteohub,2013-09-05 12:52:00,
2013-09-05 08:54:00,71.2,62.1,29.98,West,261,8.0,14.0,73,0.00,,,0.00,meteohub,2013-09-05 12:54:00,
2013-09-05 08:55:00,71.4,61.9,29.98,West,272,11.0,14.0,72,0.00,,,0.00,meteohub,2013-09-05 12:55:00,
2013-09-05 08:56:00,71.4,61.9,29.98,West,267,3.0,14.0,72,0.00,,,0.00,meteohub,2013-09-05 12:56:00,
2013-09-05 08:57:00,71.4,61.9,29.98,NW,314,4.0,14.0,72,0.00,,,0.00,meteohub,2013-09-05 12:57:00,
2013-09-05 08:59:00,71.6,62.1,29.98,WNW,296,8.0,14.0,72,0.00,,,0.00,meteohub,2013-09-05 12:59:00,
2013-09-05 09:00:00,71.8,62.2,29.98,West,275,1.0,14.0,72,0.00,,,0.00,meteohub,2013-09-05 13:00:00,
2013-09-05 09:02:00,71.8,62.2,29.97,WSW,248,3.0,14.0,72,0.00,,,0.00,meteohub,2013-09-05 13:02:00,
2013-09-05 09:05:00,72.1,62.6,29.98,WNW,300,7.0,14.0,72,0.00,,,0.00,meteohub,2013-09-05 13:05:00,
2013-09-05 09:06:00,72.1,62.6,29.97,WSW,258,7.0,12.0,72,0.00,,,0.00,meteohub,2013-09-05 13:06:00,
2013-09-05 09:07:00,72.3,62.4,29.97,WNW,286,7.0,12.0,71,0.00,,,0.00,meteohub,2013-09-05 13:07:00,
2013-09-05 09:09:00,72.3,62.4,29.97,West,277,10.0,12.0,71,0.00,,,0.00,meteohub,2013-09-05 13:09:00,
2013-09-05 09:10:00,72.3,62.4,29.98,WNW,292,13.0,14.0,71,0.00,,,0.00,meteohub,2013-09-05 13:10:00,
2013-09-05 09:11:00,72.3,62.4,29.98,WNW,293,7.0,14.0,71,0.00,,,0.00,meteohub,2013-09-05 13:11:00,
2013-09-05 09:12:00,72.3,62.4,29.98,West,273,8.0,14.0,71,0.00,,,0.00,meteohub,2013-09-05 13:12:00,
2013-09-05 09:13:00,72.5,62.6,29.98,WSW,238,5.0,14.0,71,0.00,,,0.00,meteohub,2013-09-05 13:13:00,
2013-09-05 09:14:00,72.7,63.1,29.98,West,271,9.0,14.0,72,0.00,,,0.00,meteohub,2013-09-05 13:14:00,
2013-09-05 09:15:00,72.7,62.8,29.98,WNW,292,9.0,14.0,71,0.00,,,0.00,meteohub,2013-09-05 13:15:00,
2013-09-05 09:17:00,72.7,62.8,29.98,WNW,292,5.0,14.0,71,0.00,,,0.00,meteohub,2013-09-05 13:17:00,
2013-09-05 09:18:00,72.9,63.0,29.98,West,281,8.0,14.0,71,0.00,,,0.00,meteohub,2013-09-05 13:18:00,
2013-09-05 09:19:00,72.9,63.0,29.98,West,263,3.0,14.0,71,0.00,,,0.00,meteohub,2013-09-05 13:19:00,
2013-09-05 09:21:00,73.0,63.1,29.98,WNW,290,13.0,14.0,71,0.00,,,0.00,meteohub,2013-09-05 13:21:00,
2013-09-05 09:23:00,73.2,62.8,29.98,West,275,8.0,14.0,70,0.00,,,0.00,meteohub,2013-09-05 13:23:00,
2013-09-05 09:24:00,73.2,63.3,29.98,West,260,8.0,14.0,71,0.00,,,0.00,meteohub,2013-09-05 13:24:00,
2013-09-05 09:25:00,73.2,63.3,29.98,WNW,289,4.0,14.0,71,0.00,,,0.00,meteohub,2013-09-05 13:25:00,
2013-09-05 09:26:00,73.4,63.5,29.98,West,275,4.0,14.0,71,0.00,,,0.00,meteohub,2013-09-05 13:26:00,
2013-09-05 09:28:00,73.6,63.1,29.98,WNW,288,7.0,14.0,70,0.00,,,0.00,meteohub,2013-09-05 13:28:00,
2013-09-05 09:29:00,73.8,63.0,29.98,WNW,299,8.0,14.0,69,0.00,,,0.00,meteohub,2013-09-05 13:29:00,
2013-09-05 09:30:00,73.8,63.0,29.98,WSW,242,9.0,13.0,69,0.00,,,0.00,meteohub,2013-09-05 13:30:00,
2013-09-05 09:31:00,73.9,63.1,29.98,WNW,284,8.0,13.0,69,0.00,,,0.00,meteohub,2013-09-05 13:31:00,
2013-09-05 09:32:00,73.9,63.1,29.98,West,279,11.0,13.0,69,0.00,,,0.00,meteohub,2013-09-05 13:32:00,
2013-09-05 09:33:00,74.1,63.0,29.98,WNW,290,8.0,13.0,68,0.00,,,0.00,meteohub,2013-09-05 13:33:00,
2013-09-05 09:35:00,74.1,62.4,29.98,WNW,294,9.0,14.0,67,0.00,,,0.00,meteohub,2013-09-05 13:35:00,
2013-09-05 09:36:00,74.1,62.4,29.98,West,271,11.0,14.0,67,0.00,,,0.00,meteohub,2013-09-05 13:36:00,
2013-09-05 09:37:00,74.1,62.4,29.98,West,263,3.0,14.0,67,0.00,,,0.00,meteohub,2013-09-05 13:37:00,
2013-09-05 09:39:00,74.5,62.8,29.98,West,281,7.0,14.0,67,0.00,,,0.00,meteohub,2013-09-05 13:39:00,
2013-09-05 09:41:00,74.7,63.0,29.98,WNW,287,4.0,15.0,67,0.00,,,0.00,meteohub,2013-09-05 13:41:00,
2013-09-05 09:42:00,74.8,63.1,29.98,WSW,256,5.0,15.0,67,0.00,,,0.00,meteohub,2013-09-05 13:42:00,
2013-09-05 09:43:00,74.8,63.1,29.98,WNW,282,2.0,15.0,67,0.00,,,0.00,meteohub,2013-09-05 13:43:00,
2013-09-05 09:44:00,75.0,63.3,29.98,WNW,289,2.0,15.0,67,0.00,,,0.00,meteohub,2013-09-05 13:44:00,
2013-09-05 09:46:00,75.4,62.8,29.98,NNW,330,6.0,15.0,65,0.00,,,0.00,meteohub,2013-09-05 13:46:00,
2013-09-05 09:48:00,75.6,63.0,29.98,West,269,4.0,15.0,65,0.00,,,0.00,meteohub,2013-09-05 13:48:00,
2013-09-05 09:49:00,75.6,63.0,29.98,WNW,282,9.0,15.0,65,0.00,,,0.00,meteohub,2013-09-05 13:49:00,
2013-09-05 09:52:00,75.7,62.8,29.97,West,270,6.0,14.0,64,0.00,,,0.00,meteohub,2013-09-05 13:52:00,
2013-09-05 09:54:00,75.7,62.8,29.98,West,259,1.0,14.0,64,0.00,,,0.00,meteohub,2013-09-05 13:54:00,
2013-09-05 09:56:00,75.9,62.8,29.97,West,265,8.0,14.0,64,0.00,,,0.00,meteohub,2013-09-05 13:56:00,
2013-09-05 09:57:00,76.1,62.6,29.98,WSW,242,10.0,14.0,63,0.00,,,0.00,meteohub,2013-09-05 13:57:00,
2013-09-05 09:59:00,76.3,62.8,29.98,West,260,7.0,14.0,63,0.00,,,0.00,meteohub,2013-09-05 13:59:00,
2013-09-05 10:00:00,76.1,62.6,29.98,West,268,8.0,14.0,63,0.00,,,0.00,meteohub,2013-09-05 14:00:00,
2013-09-05 10:01:00,76.3,62.8,29.97,WNW,289,7.0,14.0,63,0.00,,,0.00,meteohub,2013-09-05 14:01:00,
2013-09-05 10:02:00,76.3,62.8,29.97,WNW,295,7.0,14.0,63,0.00,,,0.00,meteohub,2013-09-05 14:02:00,
2013-09-05 10:05:00,76.3,62.8,29.97,West,274,9.0,14.0,63,0.00,,,0.00,meteohub,2013-09-05 14:05:00,
2013-09-05 10:07:00,76.5,62.4,29.97,West,274,9.0,14.0,62,0.00,,,0.00,meteohub,2013-09-05 14:07:00,
2013-09-05 10:08:00,76.3,62.2,29.97,WNW,292,8.0,14.0,62,0.00,,,0.00,meteohub,2013-09-05 14:08:00,
2013-09-05 10:10:00,76.5,62.4,29.97,West,280,8.0,13.0,62,0.00,,,0.00,meteohub,2013-09-05 14:10:00,
2013-09-05 10:11:00,76.5,62.4,29.97,West,279,12.0,13.0,62,0.00,,,0.00,meteohub,2013-09-05 14:11:00,
2013-09-05 10:12:00,76.5,62.4,29.97,WNW,293,5.0,13.0,62,0.00,,,0.00,meteohub,2013-09-05 14:12:00,
2013-09-05 10:14:00,76.6,63.1,29.97,WNW,285,7.0,13.0,63,0.00,,,0.00,meteohub,2013-09-05 14:14:00,
2013-09-05 10:15:00,76.6,62.6,29.97,NNW,338,12.0,13.0,62,0.00,,,0.00,meteohub,2013-09-05 14:15:00,
2013-09-05 10:16:00,76.6,62.6,29.97,WNW,293,8.0,13.0,62,0.00,,,0.00,meteohub,2013-09-05 14:16:00,
2013-09-05 10:18:00,76.8,62.8,29.97,WNW,292,5.0,13.0,62,0.00,,,0.00,meteohub,2013-09-05 14:18:00,
2013-09-05 10:19:00,76.8,62.8,29.97,WNW,290,3.0,13.0,62,0.00,,,0.00,meteohub,2013-09-05 14:19:00,
2013-09-05 10:20:00,77.0,63.0,29.97,WNW,290,4.0,13.0,62,0.00,,,0.00,meteohub,2013-09-05 14:20:00,
2013-09-05 10:21:00,77.2,63.1,29.97,West,261,9.0,13.0,62,0.00,,,0.00,meteohub,2013-09-05 14:21:00,
2013-09-05 10:23:00,77.2,63.1,29.97,West,277,8.0,13.0,62,0.00,,,0.00,meteohub,2013-09-05 14:23:00,
2013-09-05 10:24:00,77.2,62.6,29.97,West,268,3.0,13.0,61,0.00,,,0.00,meteohub,2013-09-05 14:24:00,
2013-09-05 10:26:00,77.4,62.8,29.98,NW,310,5.0,12.0,61,0.00,,,0.00,meteohub,2013-09-05 14:26:00,
2013-09-05 10:27:00,77.4,62.8,29.98,WNW,302,8.0,12.0,61,0.00,,,0.00,meteohub,2013-09-05 14:27:00,
2013-09-05 10:29:00,77.4,62.8,29.98,WNW,288,4.0,12.0,61,0.00,,,0.00,meteohub,2013-09-05 14:29:00,
2013-09-05 10:30:00,77.4,62.8,29.98,WNW,290,5.0,12.0,61,0.00,,,0.00,meteohub,2013-09-05 14:30:00,
2013-09-05 10:31:00,77.4,62.8,29.98,WNW,290,3.0,12.0,61,0.00,,,0.00,meteohub,2013-09-05 14:31:00,
2013-09-05 10:34:00,77.7,62.8,29.98,WNW,286,7.0,12.0,60,0.00,,,0.00,meteohub,2013-09-05 14:34:00,
2013-09-05 10:35:00,77.7,62.8,29.97,NW,319,1.0,12.0,60,0.00,,,0.00,meteohub,2013-09-05 14:35:00,
2013-09-05 10:36:00,77.7,62.8,29.97,NW,305,2.0,11.0,60,0.00,,,0.00,meteohub,2013-09-05 14:36:00,
2013-09-05 10:40:00,77.9,62.4,29.97,West,268,9.0,11.0,59,0.00,,,0.00,meteohub,2013-09-05 14:40:00,
2013-09-05 10:41:00,77.7,62.2,29.97,WNW,288,8.0,11.0,59,0.00,,,0.00,meteohub,2013-09-05 14:41:00,
2013-09-05 10:42:00,77.7,62.2,29.97,WNW,282,8.0,11.0,59,0.00,,,0.00,meteohub,2013-09-05 14:42:00,
2013-09-05 10:45:00,78.1,62.6,29.97,WSW,251,2.0,14.0,59,0.00,,,0.00,meteohub,2013-09-05 14:45:00,
2013-09-05 10:46:00,78.1,62.6,29.97,WNW,294,3.0,14.0,59,0.00,,,0.00,meteohub,2013-09-05 14:46:00,
2013-09-05 10:47:00,78.3,62.8,29.97,WNW,288,9.0,14.0,59,0.00,,,0.00,meteohub,2013-09-05 14:47:00,
2013-09-05 10:51:00,78.6,62.6,29.97,WNW,296,8.0,14.0,58,0.00,,,0.00,meteohub,2013-09-05 14:51:00,
2013-09-05 10:52:00,78.6,62.1,29.97,WNW,302,9.0,14.0,57,0.00,,,0.00,meteohub,2013-09-05 14:52:00,
2013-09-05 10:53:00,78.6,62.1,29.97,West,259,6.0,14.0,57,0.00,,,0.00,meteohub,2013-09-05 14:53:00,
2013-09-05 10:54:00,78.8,62.2,29.97,WNW,297,7.0,14.0,57,0.00,,,0.00,meteohub,2013-09-05 14:54:00,
2013-09-05 10:56:00,79.0,61.9,29.97,NW,315,2.0,14.0,56,0.00,,,0.00,meteohub,2013-09-05 14:56:00,
2013-09-05 10:57:00,79.0,61.9,29.97,West,275,3.0,14.0,56,0.00,,,0.00,meteohub,2013-09-05 14:57:00,
2013-09-05 10:58:00,79.2,62.6,29.97,WNW,295,8.0,14.0,57,0.00,,,0.00,meteohub,2013-09-05 14:58:00,
2013-09-05 10:59:00,79.2,62.6,29.97,West,266,10.0,14.0,57,0.00,,,0.00,meteohub,2013-09-05 14:59:00,
2013-09-05 11:01:00,79.2,62.1,29.97,West,275,8.0,11.0,56,0.00,,,0.00,meteohub,2013-09-05 15:01:00,
2013-09-05 11:02:00,79.0,62.4,29.97,WNW,292,9.0,11.0,57,0.00,,,0.00,meteohub,2013-09-05 15:02:00,
2013-09-05 11:03:00,79.0,62.4,29.97,WNW,303,8.0,11.0,57,0.00,,,0.00,meteohub,2013-09-05 15:03:00,
2013-09-05 11:05:00,78.8,61.7,29.97,West,280,3.0,13.0,56,0.00,,,0.00,meteohub,2013-09-05 15:05:00,
2013-09-05 11:07:00,78.6,62.1,29.97,WNW,286,7.0,13.0,57,0.00,,,0.00,meteohub,2013-09-05 15:07:00,
2013-09-05 11:08:00,78.6,62.1,29.97,West,268,8.0,13.0,57,0.00,,,0.00,meteohub,2013-09-05 15:08:00,
2013-09-05 11:10:00,78.8,62.2,29.97,West,260,4.0,13.0,57,0.00,,,0.00,meteohub,2013-09-05 15:10:00,
2013-09-05 11:11:00,79.0,63.0,29.97,WNW,298,11.0,13.0,58,0.00,,,0.00,meteohub,2013-09-05 15:11:00,
2013-09-05 11:12:00,79.0,63.0,29.97,West,274,4.0,13.0,58,0.00,,,0.00,meteohub,2013-09-05 15:12:00,
2013-09-05 11:13:00,79.0,62.4,29.97,WNW,292,5.0,13.0,57,0.00,,,0.00,meteohub,2013-09-05 15:13:00,
2013-09-05 11:15:00,79.2,62.6,29.97,West,271,7.0,13.0,57,0.00,,,0.00,meteohub,2013-09-05 15:15:00,
2013-09-05 11:16:00,79.2,62.6,29.97,West,275,2.0,13.0,57,0.00,,,0.00,meteohub,2013-09-05 15:16:00,
2013-09-05 11:17:00,79.3,62.8,29.97,WNW,285,6.0,13.0,57,0.00,,,0.00,meteohub,2013-09-05 15:17:00,
2013-09-05 11:18:00,79.5,62.4,29.96,WNW,290,7.0,13.0,56,0.00,,,0.00,meteohub,2013-09-05 15:18:00,
2013-09-05 11:21:00,79.9,63.3,29.96,WNW,284,4.0,12.0,57,0.00,,,0.00,meteohub,2013-09-05 15:21:00,
2013-09-05 11:22:00,80.1,63.0,29.96,West,267,6.0,12.0,56,0.00,,,0.00,meteohub,2013-09-05 15:22:00,
2013-09-05 11:23:00,80.2,63.1,29.96,West,265,3.0,12.0,56,0.00,,,0.00,meteohub,2013-09-05 15:23:00,
2013-09-05 11:24:00,80.2,63.1,29.96,SW,230,7.0,12.0,56,0.00,,,0.00,meteohub,2013-09-05 15:24:00,
2013-09-05 11:25:00,80.2,62.6,29.96,WNW,294,4.0,12.0,55,0.00,,,0.00,meteohub,2013-09-05 15:25:00,
2013-09-05 11:26:00,80.1,62.4,29.96,NW,307,3.0,12.0,55,0.00,,,0.00,meteohub,2013-09-05 15:26:00,
2013-09-05 11:28:00,80.1,62.4,29.96,WNW,300,8.0,12.0,55,0.00,,,0.00,meteohub,2013-09-05 15:28:00,
2013-09-05 11:29:00,80.1,63.0,29.96,SW,236,6.0,12.0,56,0.00,,,0.00,meteohub,2013-09-05 15:29:00,
2013-09-05 11:31:00,80.1,63.0,29.96,NNW,343,2.0,11.0,56,0.00,,,0.00,meteohub,2013-09-05 15:31:00,
2013-09-05 11:32:00,80.1,63.0,29.96,WNW,302,10.0,11.0,56,0.00,,,0.00,meteohub,2013-09-05 15:32:00,
2013-09-05 11:34:00,79.9,62.8,29.96,West,274,3.0,11.0,56,0.00,,,0.00,meteohub,2013-09-05 15:34:00,
2013-09-05 11:35:00,79.7,62.6,29.96,WNW,287,8.0,11.0,56,0.00,,,0.00,meteohub,2013-09-05 15:35:00,
2013-09-05 11:36:00,79.7,62.6,29.96,West,269,4.0,11.0,56,0.00,,,0.00,meteohub,2013-09-05 15:36:00,
2013-09-05 11:39:00,79.9,62.8,29.96,WSW,258,2.0,11.0,56,0.00,,,0.00,meteohub,2013-09-05 15:39:00,
2013-09-05 11:40:00,80.1,63.0,29.96,WNW,300,4.0,11.0,56,0.00,,,0.00,meteohub,2013-09-05 15:40:00,
2013-09-05 11:42:00,80.1,62.4,29.96,West,265,2.0,11.0,55,0.00,,,0.00,meteohub,2013-09-05 15:42:00,
2013-09-05 11:43:00,80.1,61.9,29.96,West,281,7.0,11.0,54,0.00,,,0.00,meteohub,2013-09-05 15:43:00,
2013-09-05 11:44:00,80.1,62.4,29.96,West,266,8.0,11.0,55,0.00,,,0.00,meteohub,2013-09-05 15:44:00,
2013-09-05 11:45:00,80.1,62.4,29.96,WNW,301,5.0,11.0,55,0.00,,,0.00,meteohub,2013-09-05 15:45:00,
2013-09-05 11:47:00,80.1,62.4,29.96,West,275,6.0,11.0,55,0.00,,,0.00,meteohub,2013-09-05 15:47:00,
2013-09-05 11:49:00,80.1,63.0,29.96,WSW,241,2.0,11.0,56,0.00,,,0.00,meteohub,2013-09-05 15:49:00,
2013-09-05 11:51:00,80.1,62.4,29.96,WSW,248,9.0,11.0,55,0.00,,,0.00,meteohub,2013-09-05 15:51:00,
2013-09-05 11:53:00,80.1,62.4,29.96,WSW,257,7.0,11.0,55,0.00,,,0.00,meteohub,2013-09-05 15:53:00,
2013-09-05 11:54:00,80.1,62.4,29.96,WSW,239,5.0,11.0,55,0.00,,,0.00,meteohub,2013-09-05 15:54:00,
2013-09-05 11:55:00,80.1,63.0,29.96,WSW,255,3.0,11.0,56,0.00,,,0.00,meteohub,2013-09-05 15:55:00,
2013-09-05 11:56:00,80.1,63.0,29.96,WSW,240,6.0,11.0,56,0.00,,,0.00,meteohub,2013-09-05 15:56:00,
2013-09-05 11:58:00,80.2,63.7,29.96,WSW,244,0.0,11.0,57,0.00,,,0.00,meteohub,2013-09-05 15:58:00,
2013-09-05 12:00:00,80.2,63.7,29.96,WSW,242,8.0,11.0,57,0.00,,,0.00,meteohub,2013-09-05 16:00:00,
2013-09-05 12:01:00,80.1,63.0,29.96,SW,230,5.0,11.0,56,0.00,,,0.00,meteohub,2013-09-05 16:01:00,
2013-09-05 12:04:00,80.1,63.9,29.96,West,259,8.0,11.0,58,0.00,,,0.00,meteohub,2013-09-05 16:04:00,
2013-09-05 12:05:00,80.1,64.4,29.96,WSW,241,8.0,11.0,59,0.00,,,0.00,meteohub,2013-09-05 16:05:00,
2013-09-05 12:06:00,80.1,63.5,29.96,SW,227,5.0,11.0,57,0.00,,,0.00,meteohub,2013-09-05 16:06:00,
2013-09-05 12:07:00,80.1,63.5,29.96,SW,233,5.0,11.0,57,0.00,,,0.00,meteohub,2013-09-05 16:07:00,
2013-09-05 12:09:00,80.2,64.0,29.96,WNW,291,7.0,11.0,58,0.00,,,0.00,meteohub,2013-09-05 16:09:00,
2013-09-05 12:10:00,80.2,63.7,29.96,SW,234,2.0,11.0,57,0.00,,,0.00,meteohub,2013-09-05 16:10:00,
2013-09-05 12:11:00,80.2,63.7,29.96,WSW,239,4.0,11.0,57,0.00,,,0.00,meteohub,2013-09-05 16:11:00,
2013-09-05 12:12:00,80.2,63.1,29.96,West,267,4.0,11.0,56,0.00,,,0.00,meteohub,2013-09-05 16:12:00,
2013-09-05 12:16:00,80.4,63.3,29.96,SW,232,3.0,11.0,56,0.00,,,0.00,meteohub,2013-09-05 16:16:00,
2013-09-05 12:17:00,80.6,63.0,29.96,WSW,257,3.0,11.0,55,0.00,,,0.00,meteohub,2013-09-05 16:17:00,
2013-09-05 12:18:00,80.8,63.1,29.96,West,277,2.0,11.0,55,0.00,,,0.00,meteohub,2013-09-05 16:18:00,
2013-09-05 12:19:00,81.0,63.9,29.96,West,268,4.0,11.0,56,0.00,,,0.00,meteohub,2013-09-05 16:19:00,
2013-09-05 12:21:00,81.1,63.5,29.96,WSW,237,9.0,10.0,55,0.00,,,0.00,meteohub,2013-09-05 16:21:00,
2013-09-05 12:22:00,81.0,63.3,29.96,West,259,7.0,10.0,55,0.00,,,0.00,meteohub,2013-09-05 16:22:00,
2013-09-05 12:24:00,80.8,63.7,29.96,SW,226,2.0,10.0,56,0.00,,,0.00,meteohub,2013-09-05 16:24:00,
2013-09-05 12:26:00,80.4,63.9,29.96,WSW,252,7.0,10.0,57,0.00,,,0.00,meteohub,2013-09-05 16:26:00,
2013-09-05 12:27:00,80.6,64.0,29.96,WSW,246,5.0,10.0,57,0.00,,,0.00,meteohub,2013-09-05 16:27:00,
2013-09-05 12:30:00,80.6,63.5,29.96,West,274,3.0,10.0,56,0.00,,,0.00,meteohub,2013-09-05 16:30:00,
2013-09-05 12:31:00,80.6,63.5,29.96,WNW,293,2.0,10.0,56,0.00,,,0.00,meteohub,2013-09-05 16:31:00,
2013-09-05 12:32:00,80.8,63.7,29.96,WSW,254,9.0,10.0,56,0.00,,,0.00,meteohub,2013-09-05 16:32:00,
2013-09-05 12:33:00,80.8,63.7,29.96,West,280,6.0,10.0,56,0.00,,,0.00,meteohub,2013-09-05 16:33:00,
2013-09-05 12:36:00,81.1,63.5,29.96,West,261,6.0,10.0,55,0.00,,,0.00,meteohub,2013-09-05 16:36:00,
2013-09-05 12:37:00,81.1,63.5,29.96,West,262,8.0,10.0,55,0.00,,,0.00,meteohub,2013-09-05 16:37:00,
2013-09-05 12:38:00,81.1,63.5,29.96,WSW,254,7.0,10.0,55,0.00,,,0.00,meteohub,2013-09-05 16:38:00,
2013-09-05 12:39:00,80.8,63.7,29.96,WSW,245,8.0,10.0,56,0.00,,,0.00,meteohub,2013-09-05 16:39:00,
2013-09-05 12:41:00,80.4,63.9,29.95,WSW,242,3.0,10.0,57,0.00,,,0.00,meteohub,2013-09-05 16:41:00,
2013-09-05 12:42:00,80.4,63.3,29.95,West,263,3.0,10.0,56,0.00,,,0.00,meteohub,2013-09-05 16:42:00,
2013-09-05 12:43:00,80.4,63.3,29.95,WSW,240,6.0,10.0,56,0.00,,,0.00,meteohub,2013-09-05 16:43:00,
2013-09-05 12:44:00,80.4,63.9,29.96,West,265,2.0,10.0,57,0.00,,,0.00,meteohub,2013-09-05 16:44:00,
2013-09-05 12:45:00,80.4,63.9,29.96,WSW,242,4.0,11.0,57,0.00,,,0.00,meteohub,2013-09-05 16:45:00,
2013-09-05 12:47:00,80.6,64.0,29.96,WNW,284,3.0,11.0,57,0.00,,,0.00,meteohub,2013-09-05 16:47:00,
2013-09-05 12:49:00,80.8,63.7,29.96,West,276,4.0,11.0,56,0.00,,,0.00,meteohub,2013-09-05 16:49:00,
2013-09-05 12:51:00,80.6,63.0,29.96,SW,216,6.0,11.0,55,0.00,,,0.00,meteohub,2013-09-05 16:51:00,
2013-09-05 12:52:00,80.6,63.5,29.96,SW,234,4.0,11.0,56,0.00,,,0.00,meteohub,2013-09-05 16:52:00,
2013-09-05 12:53:00,80.6,63.5,29.96,West,271,2.0,11.0,56,0.00,,,0.00,meteohub,2013-09-05 16:53:00,
2013-09-05 12:55:00,80.6,64.0,29.96,WSW,244,5.0,10.0,57,0.00,,,0.00,meteohub,2013-09-05 16:55:00,
2013-09-05 12:57:00,80.8,64.0,29.96,West,267,4.0,10.0,57,0.00,,,0.00,meteohub,2013-09-05 16:57:00,
2013-09-05 12:58:00,80.8,63.7,29.96,WNW,290,0.0,10.0,56,0.00,,,0.00,meteohub,2013-09-05 16:58:00,
2013-09-05 13:01:00,81.1,63.5,29.95,WSW,240,1.0,10.0,55,0.00,,,0.00,meteohub,2013-09-05 17:01:00,
2013-09-05 13:02:00,81.1,64.0,29.95,NNE,15,1.0,10.0,56,0.00,,,0.00,meteohub,2013-09-05 17:02:00,
2013-09-05 13:03:00,81.3,64.0,29.95,WNW,292,5.0,10.0,56,0.00,,,0.00,meteohub,2013-09-05 17:03:00,
2013-09-05 13:06:00,81.7,63.9,29.96,NNW,329,4.0,9.0,55,0.00,,,0.00,meteohub,2013-09-05 17:06:00,
2013-09-05 13:07:00,81.7,63.9,29.96,South,180,1.0,9.0,55,0.00,,,0.00,meteohub,2013-09-05 17:07:00,
2013-09-05 13:08:00,81.7,63.9,29.96,NNE,22,4.0,9.0,55,0.00,,,0.00,meteohub,2013-09-05 17:08:00,
2013-09-05 13:12:00,81.9,64.0,29.96,West,271,3.0,11.0,55,0.00,,,0.00,meteohub,2013-09-05 17:12:00,
2013-09-05 13:13:00,81.9,63.5,29.96,WNW,286,1.0,11.0,54,0.00,,,0.00,meteohub,2013-09-05 17:13:00,
2013-09-05 13:14:00,81.9,63.5,29.96,South,188,2.0,11.0,54,0.00,,,0.00,meteohub,2013-09-05 17:14:00,
2013-09-05 13:17:00,81.7,63.5,29.96,West,275,2.0,11.0,54,0.00,,,0.00,meteohub,2013-09-05 17:17:00,
2013-09-05 13:18:00,81.5,63.3,29.96,West,274,0.0,11.0,54,0.00,,,0.00,meteohub,2013-09-05 17:18:00,
2013-09-05 13:19:00,81.3,63.1,29.96,WNW,288,1.0,11.0,54,0.00,,,0.00,meteohub,2013-09-05 17:19:00,
2013-09-05 13:23:00,81.3,63.7,29.96,North,5,0.0,11.0,55,0.00,,,0.00,meteohub,2013-09-05 17:23:00,
2013-09-05 13:24:00,81.3,63.7,29.96,West,259,4.0,11.0,55,0.00,,,0.00,meteohub,2013-09-05 17:24:00,
2013-09-05 13:29:00,81.0,63.9,29.96,West,275,2.0,10.0,56,0.00,,,0.00,meteohub,2013-09-05 17:29:00,
2013-09-05 13:30:00,80.8,64.0,29.96,West,261,4.0,9.0,57,0.00,,,0.00,meteohub,2013-09-05 17:30:00,
2013-09-05 13:34:00,80.6,64.4,29.96,West,281,3.0,9.0,58,0.00,,,0.00,meteohub,2013-09-05 17:34:00,
2013-09-05 13:35:00,80.6,64.4,29.96,West,279,3.0,9.0,58,0.00,,,0.00,meteohub,2013-09-05 17:35:00,
2013-09-05 13:36:00,80.6,64.4,29.96,West,271,2.0,9.0,58,0.00,,,0.00,meteohub,2013-09-05 17:36:00,
2013-09-05 13:39:00,80.2,63.7,29.96,NW,321,4.0,9.0,57,0.00,,,0.00,meteohub,2013-09-05 17:39:00,
2013-09-05 13:40:00,80.2,64.0,29.96,WNW,285,0.0,10.0,58,0.00,,,0.00,meteohub,2013-09-05 17:40:00,
2013-09-05 13:41:00,80.2,64.0,29.96,WNW,303,5.0,10.0,58,0.00,,,0.00,meteohub,2013-09-05 17:41:00,
2013-09-05 13:43:00,80.2,64.0,29.96,WSW,249,0.0,10.0,58,0.00,,,0.00,meteohub,2013-09-05 17:43:00,
2013-09-05 13:44:00,80.4,64.2,29.96,WSW,239,1.0,10.0,58,0.00,,,0.00,meteohub,2013-09-05 17:44:00,
2013-09-05 13:45:00,80.4,64.2,29.96,West,259,2.0,10.0,58,0.00,,,0.00,meteohub,2013-09-05 17:45:00,
2013-09-05 13:46:00,80.4,63.9,29.96,SW,221,1.0,10.0,57,0.00,,,0.00,meteohub,2013-09-05 17:46:00,
2013-09-05 13:47:00,80.4,63.9,29.96,NW,323,3.0,10.0,57,0.00,,,0.00,meteohub,2013-09-05 17:47:00,
2013-09-05 13:49:00,80.6,64.0,29.96,WSW,257,2.0,10.0,57,0.00,,,0.00,meteohub,2013-09-05 17:49:00,
2013-09-05 13:50:00,80.6,64.0,29.96,WSW,241,2.0,10.0,57,0.00,,,0.00,meteohub,2013-09-05 17:50:00,
2013-09-05 13:52:00,80.4,63.9,29.96,SW,221,2.0,10.0,57,0.00,,,0.00,meteohub,2013-09-05 17:52:00,
2013-09-05 13:54:00,80.6,64.0,29.96,West,270,7.0,10.0,57,0.00,,,0.00,meteohub,2013-09-05 17:54:00,
2013-09-05 13:55:00,80.6,63.5,29.96,NNW,340,2.0,8.0,56,0.00,,,0.00,meteohub,2013-09-05 17:55:00,
2013-09-05 13:56:00,80.6,64.0,29.96,North,0,5.0,8.0,57,0.00,,,0.00,meteohub,2013-09-05 17:56:00,
2013-09-05 13:58:00,80.4,63.9,29.96,NNE,24,2.0,8.0,57,0.00,,,0.00,meteohub,2013-09-05 17:58:00,
2013-09-05 14:00:00,80.4,63.9,29.97,North,0,2.0,10.0,57,0.00,,,0.00,meteohub,2013-09-05 18:00:00,
2013-09-05 14:01:00,80.4,63.9,29.96,West,279,4.0,10.0,57,0.00,,,0.00,meteohub,2013-09-05 18:01:00,
2013-09-05 14:04:00,80.4,63.3,29.96,North,0,4.0,10.0,56,0.00,,,0.00,meteohub,2013-09-05 18:04:00,
2013-09-05 14:05:00,80.4,63.9,29.96,ENE,67,2.0,10.0,57,0.00,,,0.00,meteohub,2013-09-05 18:05:00,
2013-09-05 14:06:00,80.4,63.9,29.96,North,9,2.0,10.0,57,0.00,,,0.00,meteohub,2013-09-05 18:06:00,
2013-09-05 14:09:00,80.4,64.2,29.96,WNW,298,1.0,10.0,58,0.00,,,0.00,meteohub,2013-09-05 18:09:00,
2013-09-05 14:10:00,80.4,64.2,29.96,NE,42,2.0,10.0,58,0.00,,,0.00,meteohub,2013-09-05 18:10:00,
2013-09-05 14:11:00,80.4,63.9,29.96,West,261,1.0,9.0,57,0.00,,,0.00,meteohub,2013-09-05 18:11:00,
2013-09-05 14:13:00,80.2,63.7,29.96,West,267,0.0,9.0,57,0.00,,,0.00,meteohub,2013-09-05 18:13:00,
2013-09-05 14:15:00,80.2,63.7,29.96,NW,309,4.0,9.0,57,0.00,,,0.00,meteohub,2013-09-05 18:15:00,
2013-09-05 14:16:00,80.1,63.5,29.96,WSW,257,7.0,7.0,57,0.00,,,0.00,meteohub,2013-09-05 18:16:00,
2013-09-05 14:19:00,79.9,63.9,29.96,West,273,3.0,7.0,58,0.00,,,0.00,meteohub,2013-09-05 18:19:00,
2013-09-05 14:20:00,79.7,63.7,29.96,WNW,292,2.0,10.0,58,0.00,,,0.00,meteohub,2013-09-05 18:20:00,
2013-09-05 14:21:00,79.7,63.7,29.96,WSW,247,5.0,10.0,58,0.00,,,0.00,meteohub,2013-09-05 18:21:00,
2013-09-05 14:22:00,79.5,63.5,29.96,South,182,1.0,10.0,58,0.00,,,0.00,meteohub,2013-09-05 18:22:00,
2013-09-05 14:24:00,79.5,63.5,29.96,SSE,156,1.0,10.0,58,0.00,,,0.00,meteohub,2013-09-05 18:24:00,
2013-09-05 14:26:00,79.3,63.3,29.96,WNW,289,4.0,10.0,58,0.00,,,0.00,meteohub,2013-09-05 18:26:00,
2013-09-05 14:27:00,79.3,63.3,29.96,West,281,2.0,10.0,58,0.00,,,0.00,meteohub,2013-09-05 18:27:00,
2013-09-05 14:30:00,79.0,63.5,29.96,WNW,287,3.0,9.0,59,0.00,,,0.00,meteohub,2013-09-05 18:30:00,
2013-09-05 14:31:00,79.0,63.9,29.96,NNE,20,1.0,9.0,60,0.00,,,0.00,meteohub,2013-09-05 18:31:00,
2013-09-05 14:32:00,79.0,63.9,29.96,NW,304,0.0,9.0,60,0.00,,,0.00,meteohub,2013-09-05 18:32:00,
2013-09-05 14:34:00,79.0,63.5,29.96,North,349,0.0,9.0,59,0.00,,,0.00,meteohub,2013-09-05 18:34:00,
2013-09-05 14:36:00,79.0,63.5,29.96,SE,126,2.0,9.0,59,0.00,,,0.00,meteohub,2013-09-05 18:36:00,
2013-09-05 14:37:00,79.0,63.5,29.96,SSW,207,1.0,9.0,59,0.00,,,0.00,meteohub,2013-09-05 18:37:00,
2013-09-05 14:38:00,79.0,63.5,29.96,West,270,0.0,9.0,59,0.00,,,0.00,meteohub,2013-09-05 18:38:00,
2013-09-05 14:40:00,79.0,63.9,29.96,SSW,212,2.0,9.0,60,0.00,,,0.00,meteohub,2013-09-05 18:40:00,
2013-09-05 14:42:00,79.0,63.9,29.96,North,5,2.0,9.0,60,0.00,,,0.00,meteohub,2013-09-05 18:42:00,
2013-09-05 14:43:00,79.0,63.9,29.96,ENE,72,1.0,9.0,60,0.00,,,0.00,meteohub,2013-09-05 18:43:00,
2013-09-05 14:44:00,78.8,63.7,29.96,West,278,1.0,9.0,60,0.00,,,0.00,meteohub,2013-09-05 18:44:00,
2013-09-05 14:46:00,78.6,63.5,29.96,West,268,1.0,8.0,60,0.00,,,0.00,meteohub,2013-09-05 18:46:00,
2013-09-05 14:48:00,78.6,63.5,29.96,SW,228,0.0,8.0,60,0.00,,,0.00,meteohub,2013-09-05 18:48:00,
2013-09-05 14:50:00,78.4,63.9,29.96,West,281,0.0,8.0,61,0.00,,,0.00,meteohub,2013-09-05 18:50:00,
2013-09-05 14:52:00,78.4,63.9,29.96,WNW,298,0.0,9.0,61,0.00,,,0.00,meteohub,2013-09-05 18:52:00,
2013-09-05 14:53:00,78.4,63.3,29.96,West,277,0.0,9.0,60,0.00,,,0.00,meteohub,2013-09-05 18:53:00,
2013-09-05 14:54:00,78.4,63.3,29.96,West,275,4.0,9.0,60,0.00,,,0.00,meteohub,2013-09-05 18:54:00,
2013-09-05 14:56:00,78.4,63.9,29.96,West,269,2.0,9.0,61,0.00,,,0.00,meteohub,2013-09-05 18:56:00,
2013-09-05 14:58:00,78.4,63.9,29.96,West,279,2.0,9.0,61,0.00,,,0.00,meteohub,2013-09-05 18:58:00,
2013-09-05 14:59:00,78.4,63.9,29.96,West,278,1.0,9.0,61,0.00,,,0.00,meteohub,2013-09-05 18:59:00,
2013-09-05 15:01:00,78.4,63.3,29.96,West,281,2.0,7.0,60,0.00,,,0.00,meteohub,2013-09-05 19:01:00,
2013-09-05 15:03:00,78.4,63.9,29.96,WNW,295,0.0,7.0,61,0.00,,,0.00,meteohub,2013-09-05 19:03:00,
2013-09-05 15:04:00,78.4,63.9,29.96,NNW,346,1.0,7.0,61,0.00,,,0.00,meteohub,2013-09-05 19:04:00,
2013-09-05 15:05:00,78.4,63.9,29.96,SW,236,1.0,7.0,61,0.00,,,0.00,meteohub,2013-09-05 19:05:00,
2013-09-05 15:06:00,78.6,64.0,29.96,SW,236,1.0,7.0,61,0.00,,,0.00,meteohub,2013-09-05 19:06:00,
2013-09-05 15:09:00,78.8,63.7,29.96,WNW,292,1.0,7.0,60,0.00,,,0.00,meteohub,2013-09-05 19:09:00,
2013-09-05 15:11:00,79.0,63.9,29.96,NNW,327,1.0,6.0,60,0.00,,,0.00,meteohub,2013-09-05 19:11:00,
2013-09-05 15:14:00,79.3,63.7,29.96,WNW,290,2.0,6.0,59,0.00,,,0.00,meteohub,2013-09-05 19:14:00,
2013-09-05 15:15:00,79.3,63.7,29.96,WNW,286,0.0,6.0,59,0.00,,,0.00,meteohub,2013-09-05 19:15:00,
2013-09-05 15:17:00,79.3,63.7,29.96,ESE,117,1.0,7.0,59,0.00,,,0.00,meteohub,2013-09-05 19:17:00,
2013-09-05 15:18:00,79.3,63.7,29.95,West,265,1.0,7.0,59,0.00,,,0.00,meteohub,2013-09-05 19:18:00,
2013-09-05 15:19:00,79.3,64.2,29.95,NE,54,7.0,7.0,60,0.00,,,0.00,meteohub,2013-09-05 19:19:00,
2013-09-05 15:20:00,79.3,64.2,29.96,NNE,22,6.0,12.0,60,0.00,,,0.00,meteohub,2013-09-05 19:20:00,
2013-09-05 15:22:00,79.3,64.2,29.96,ENE,69,1.0,12.0,60,0.00,,,0.00,meteohub,2013-09-05 19:22:00,
2013-09-05 15:23:00,79.3,64.8,29.96,NNE,32,6.0,12.0,61,0.00,,,0.00,meteohub,2013-09-05 19:23:00,
2013-09-05 15:24:00,79.3,64.2,29.96,NNE,17,4.0,12.0,60,0.00,,,0.00,meteohub,2013-09-05 19:24:00,
2013-09-05 15:25:00,79.3,64.2,29.96,WSW,240,0.0,12.0,60,0.00,,,0.00,meteohub,2013-09-05 19:25:00,
2013-09-05 15:26:00,79.3,64.8,29.96,NE,51,5.0,12.0,61,0.00,,,0.00,meteohub,2013-09-05 19:26:00,
2013-09-05 15:27:00,79.2,64.6,29.96,North,5,3.0,12.0,61,0.00,,,0.00,meteohub,2013-09-05 19:27:00,
2013-09-05 15:30:00,79.2,64.6,29.96,NNW,337,1.0,12.0,61,0.00,,,0.00,meteohub,2013-09-05 19:30:00,
2013-09-05 15:31:00,79.2,64.6,29.96,North,351,2.0,10.0,61,0.00,,,0.00,meteohub,2013-09-05 19:31:00,
2013-09-05 15:32:00,79.2,64.6,29.96,North,9,4.0,10.0,61,0.00,,,0.00,meteohub,2013-09-05 19:32:00,
2013-09-05 15:35:00,79.0,64.8,29.96,NNW,338,1.0,8.0,62,0.00,,,0.00,meteohub,2013-09-05 19:35:00,
2013-09-05 15:36:00,79.0,64.8,29.96,SSW,203,0.0,8.0,62,0.00,,,0.00,meteohub,2013-09-05 19:36:00,
2013-09-05 15:38:00,79.2,64.9,29.96,North,5,1.0,8.0,62,0.00,,,0.00,meteohub,2013-09-05 19:38:00,
2013-09-05 15:40:00,79.0,64.4,29.96,West,281,2.0,8.0,61,0.00,,,0.00,meteohub,2013-09-05 19:40:00,
2013-09-05 15:41:00,79.0,64.4,29.96,West,265,1.0,8.0,61,0.00,,,0.00,meteohub,2013-09-05 19:41:00,
2013-09-05 15:43:00,78.8,64.2,29.96,WSW,255,8.0,8.0,61,0.00,,,0.00,meteohub,2013-09-05 19:43:00,
2013-09-05 15:44:00,78.6,64.0,29.96,West,271,4.0,8.0,61,0.00,,,0.00,meteohub,2013-09-05 19:44:00,
2013-09-05 15:46:00,78.4,64.4,29.96,WNW,300,0.0,8.0,62,0.00,,,0.00,meteohub,2013-09-05 19:46:00,
2013-09-05 15:47:00,78.4,64.4,29.96,North,0,0.0,8.0,62,0.00,,,0.00,meteohub,2013-09-05 19:47:00,
2013-09-05 15:49:00,78.3,64.2,29.96,West,277,2.0,8.0,62,0.00,,,0.00,meteohub,2013-09-05 19:49:00,
2013-09-05 15:51:00,78.3,64.6,29.96,North,5,0.0,11.0,63,0.00,,,0.00,meteohub,2013-09-05 19:51:00,
2013-09-05 15:52:00,78.3,64.2,29.96,East,84,1.0,11.0,62,0.00,,,0.00,meteohub,2013-09-05 19:52:00,
2013-09-05 15:54:00,78.1,64.0,29.96,WNW,290,3.0,11.0,62,0.00,,,0.00,meteohub,2013-09-05 19:54:00,
2013-09-05 15:56:00,78.1,64.4,29.96,WNW,296,2.0,11.0,63,0.00,,,0.00,meteohub,2013-09-05 19:56:00,
2013-09-05 15:57:00,78.1,64.4,29.96,NW,309,0.0,11.0,63,0.00,,,0.00,meteohub,2013-09-05 19:57:00,
2013-09-05 15:58:00,77.9,64.2,29.96,SSW,194,1.0,11.0,63,0.00,,,0.00,meteohub,2013-09-05 19:58:00,
2013-09-05 16:02:00,77.7,64.0,29.96,West,259,2.0,11.0,63,0.00,,,0.00,meteohub,2013-09-05 20:02:00,
2013-09-05 16:03:00,77.7,64.0,29.96,NW,315,2.0,11.0,63,0.00,,,0.00,meteohub,2013-09-05 20:03:00,
2013-09-05 16:04:00,77.7,64.0,29.96,WNW,283,1.0,11.0,63,0.00,,,0.00,meteohub,2013-09-05 20:04:00,
2013-09-05 16:07:00,77.7,64.6,29.96,WNW,294,0.0,7.0,64,0.00,,,0.00,meteohub,2013-09-05 20:07:00,
2013-09-05 16:08:00,77.7,64.6,29.96,WNW,292,0.0,7.0,64,0.00,,,0.00,meteohub,2013-09-05 20:08:00,
2013-09-05 16:10:00,77.9,64.2,29.96,NW,315,1.0,7.0,63,0.00,,,0.00,meteohub,2013-09-05 20:10:00,
2013-09-05 16:13:00,78.1,64.4,29.96,West,276,4.0,7.0,63,0.00,,,0.00,meteohub,2013-09-05 20:13:00,
2013-09-05 16:15:00,78.1,64.0,29.96,West,277,1.0,7.0,62,0.00,,,0.00,meteohub,2013-09-05 20:15:00,
2013-09-05 16:17:00,78.1,64.0,29.96,West,267,3.0,7.0,62,0.00,,,0.00,meteohub,2013-09-05 20:17:00,
2013-09-05 16:18:00,78.1,64.0,29.96,West,278,0.0,7.0,62,0.00,,,0.00,meteohub,2013-09-05 20:18:00,
2013-09-05 16:19:00,78.1,64.0,29.96,NW,315,0.0,7.0,62,0.00,,,0.00,meteohub,2013-09-05 20:19:00,
2013-09-05 16:20:00,78.1,64.0,29.96,West,275,1.0,8.0,62,0.00,,,0.00,meteohub,2013-09-05 20:20:00,
2013-09-05 16:22:00,78.1,63.5,29.96,WNW,292,1.0,8.0,61,0.00,,,0.00,meteohub,2013-09-05 20:22:00,
2013-09-05 16:23:00,78.1,63.5,29.96,NW,304,2.0,8.0,61,0.00,,,0.00,meteohub,2013-09-05 20:23:00,
2013-09-05 16:24:00,78.1,63.5,29.96,NNW,327,1.0,8.0,61,0.00,,,0.00,meteohub,2013-09-05 20:24:00,
2013-09-05 16:25:00,78.1,63.5,29.96,WNW,294,1.0,8.0,61,0.00,,,0.00,meteohub,2013-09-05 20:25:00,
2013-09-05 16:26:00,78.1,63.5,29.96,WNW,291,0.0,9.0,61,0.00,,,0.00,meteohub,2013-09-05 20:26:00,
2013-09-05 16:27:00,78.3,63.7,29.96,NNW,328,0.0,9.0,61,0.00,,,0.00,meteohub,2013-09-05 20:27:00,
2013-09-05 16:29:00,78.3,63.7,29.96,WNW,294,2.0,9.0,61,0.00,,,0.00,meteohub,2013-09-05 20:29:00,
2013-09-05 16:30:00,78.4,63.9,29.96,WNW,292,2.0,9.0,61,0.00,,,0.00,meteohub,2013-09-05 20:30:00,
2013-09-05 16:32:00,78.4,63.3,29.96,WNW,288,3.0,9.0,60,0.00,,,0.00,meteohub,2013-09-05 20:32:00,
2013-09-05 16:33:00,78.6,63.5,29.96,NW,310,2.0,9.0,60,0.00,,,0.00,meteohub,2013-09-05 20:33:00,
2013-09-05 16:35:00,78.6,63.5,29.96,WNW,283,1.0,9.0,60,0.00,,,0.00,meteohub,2013-09-05 20:35:00,
2013-09-05 16:37:00,79.0,63.5,29.96,NNE,15,2.0,9.0,59,0.00,,,0.00,meteohub,2013-09-05 20:37:00,
2013-09-05 16:38:00,79.0,63.5,29.96,NNE,19,5.0,9.0,59,0.00,,,0.00,meteohub,2013-09-05 20:38:00,
2013-09-05 16:40:00,79.2,63.1,29.96,West,267,2.0,7.0,58,0.00,,,0.00,meteohub,2013-09-05 20:40:00,
2013-09-05 16:43:00,79.5,63.0,29.96,SE,134,1.0,7.0,57,0.00,,,0.00,meteohub,2013-09-05 20:43:00,
2013-09-05 16:44:00,79.7,63.1,29.96,WNW,291,1.0,7.0,57,0.00,,,0.00,meteohub,2013-09-05 20:44:00,
2013-09-05 16:45:00,79.9,63.3,29.96,NW,311,1.0,7.0,57,0.00,,,0.00,meteohub,2013-09-05 20:45:00,
2013-09-05 16:46:00,79.9,63.3,29.96,WNW,299,2.0,7.0,57,0.00,,,0.00,meteohub,2013-09-05 20:46:00,
2013-09-05 16:48:00,79.9,63.3,29.96,ENE,69,1.0,7.0,57,0.00,,,0.00,meteohub,2013-09-05 20:48:00,
2013-09-05 16:49:00,80.1,63.5,29.97,WNW,283,1.0,7.0,57,0.00,,,0.00,meteohub,2013-09-05 20:49:00,
2013-09-05 16:50:00,80.1,63.5,29.97,WSW,253,1.0,5.0,57,0.00,,,0.00,meteohub,2013-09-05 20:50:00,
2013-09-05 16:51:00,79.9,63.3,29.97,NW,319,0.0,5.0,57,0.00,,,0.00,meteohub,2013-09-05 20:51:00,
2013-09-05 16:52:00,79.9,63.3,29.97,West,263,2.0,5.0,57,0.00,,,0.00,meteohub,2013-09-05 20:52:00,
2013-09-05 16:53:00,79.9,63.3,29.97,North,355,0.0,5.0,57,0.00,,,0.00,meteohub,2013-09-05 20:53:00,
2013-09-05 16:54:00,80.1,63.5,29.97,West,260,0.0,5.0,57,0.00,,,0.00,meteohub,2013-09-05 20:54:00,
2013-09-05 16:55:00,80.1,63.0,29.97,West,270,2.0,6.0,56,0.00,,,0.00,meteohub,2013-09-05 20:55:00,
2013-09-05 16:56:00,80.1,63.0,29.97,SSW,192,1.0,6.0,56,0.00,,,0.00,meteohub,2013-09-05 20:56:00,
2013-09-05 16:57:00,80.1,63.0,29.97,WNW,283,1.0,6.0,56,0.00,,,0.00,meteohub,2013-09-05 20:57:00,
2013-09-05 16:58:00,80.1,62.4,29.96,WNW,290,1.0,6.0,55,0.00,,,0.00,meteohub,2013-09-05 20:58:00,
2013-09-05 16:59:00,80.1,62.4,29.96,North,351,2.0,6.0,55,0.00,,,0.00,meteohub,2013-09-05 20:59:00,
2013-09-05 17:01:00,80.1,62.4,29.96,SW,226,2.0,6.0,55,0.00,,,0.00,meteohub,2013-09-05 21:01:00,
2013-09-05 17:02:00,80.1,62.4,29.96,ENE,71,1.0,6.0,55,0.00,,,0.00,meteohub,2013-09-05 21:02:00,
2013-09-05 17:05:00,80.1,62.4,29.96,SW,227,1.0,6.0,55,0.00,,,0.00,meteohub,2013-09-05 21:05:00,
2013-09-05 17:07:00,79.9,62.2,29.96,ENE,61,1.0,6.0,55,0.00,,,0.00,meteohub,2013-09-05 21:07:00,
2013-09-05 17:08:00,79.9,62.2,29.96,NW,315,0.0,6.0,55,0.00,,,0.00,meteohub,2013-09-05 21:08:00,
2013-09-05 17:09:00,79.9,62.2,29.96,NW,315,0.0,6.0,55,0.00,,,0.00,meteohub,2013-09-05 21:09:00,
2013-09-05 17:10:00,79.7,62.6,29.96,NNW,333,0.0,5.0,56,0.00,,,0.00,meteohub,2013-09-05 21:10:00,
2013-09-05 17:12:00,79.3,62.2,29.96,WNW,287,1.0,5.0,56,0.00,,,0.00,meteohub,2013-09-05 21:12:00,
2013-09-05 17:13:00,79.3,62.2,29.96,South,180,1.0,5.0,56,0.00,,,0.00,meteohub,2013-09-05 21:13:00,
2013-09-05 17:14:00,79.2,62.1,29.96,South,173,0.0,5.0,56,0.00,,,0.00,meteohub,2013-09-05 21:14:00,
2013-09-05 17:16:00,79.2,62.6,29.96,NW,305,0.0,9.0,57,0.00,,,0.00,meteohub,2013-09-05 21:16:00,
2013-09-05 17:17:00,79.0,62.4,29.96,NW,306,3.0,9.0,57,0.00,,,0.00,meteohub,2013-09-05 21:17:00,
2013-09-05 17:19:00,79.0,62.4,29.96,NW,320,3.0,9.0,57,0.00,,,0.00,meteohub,2013-09-05 21:19:00,
2013-09-05 17:21:00,78.6,62.6,29.97,WNW,288,3.0,9.0,58,0.00,,,0.00,meteohub,2013-09-05 21:21:00,
2013-09-05 17:22:00,78.4,62.4,29.97,SSE,162,2.0,9.0,58,0.00,,,0.00,meteohub,2013-09-05 21:22:00,
2013-09-05 17:24:00,78.1,61.5,29.97,West,259,1.0,9.0,57,0.00,,,0.00,meteohub,2013-09-05 21:24:00,
2013-09-05 17:27:00,77.5,62.1,29.97,WNW,290,2.0,11.0,59,0.00,,,0.00,meteohub,2013-09-05 21:27:00,
2013-09-05 17:28:00,77.5,62.6,29.97,NNE,15,2.0,11.0,60,0.00,,,0.00,meteohub,2013-09-05 21:28:00,
2013-09-05 17:29:00,77.4,62.4,29.97,NW,311,2.0,11.0,60,0.00,,,0.00,meteohub,2013-09-05 21:29:00,
2013-09-05 17:32:00,77.2,62.6,29.97,NE,53,2.0,11.0,61,0.00,,,0.00,meteohub,2013-09-05 21:32:00,
2013-09-05 17:33:00,77.0,62.6,29.97,ENE,78,3.0,11.0,61,0.00,,,0.00,meteohub,2013-09-05 21:33:00,
2013-09-05 17:34:00,76.8,62.4,29.97,SSW,208,3.0,11.0,61,0.00,,,0.00,meteohub,2013-09-05 21:34:00,
2013-09-05 17:36:00,76.8,62.8,29.97,NNE,27,1.0,11.0,62,0.00,,,0.00,meteohub,2013-09-05 21:36:00,
2013-09-05 17:38:00,76.6,62.6,29.97,WSW,253,0.0,11.0,62,0.00,,,0.00,meteohub,2013-09-05 21:38:00,
2013-09-05 17:39:00,76.6,62.6,29.97,WNW,282,2.0,11.0,62,0.00,,,0.00,meteohub,2013-09-05 21:39:00,
2013-09-05 17:40:00,76.6,62.6,29.97,WNW,282,1.0,11.0,62,0.00,,,0.00,meteohub,2013-09-05 21:40:00,
2013-09-05 17:41:00,76.6,62.6,29.97,NNE,22,3.0,10.0,62,0.00,,,0.00,meteohub,2013-09-05 21:41:00,
2013-09-05 17:43:00,76.5,62.1,29.97,West,262,0.0,10.0,61,0.00,,,0.00,meteohub,2013-09-05 21:43:00,
2013-09-05 17:44:00,76.5,62.1,29.97,SW,223,1.0,10.0,61,0.00,,,0.00,meteohub,2013-09-05 21:44:00,
2013-09-05 17:45:00,76.5,62.4,29.97,WNW,282,0.0,9.0,62,0.00,,,0.00,meteohub,2013-09-05 21:45:00,
2013-09-05 17:46:00,76.5,62.1,29.97,WNW,291,2.0,9.0,61,0.00,,,0.00,meteohub,2013-09-05 21:46:00,
2013-09-05 17:48:00,76.5,62.1,29.97,West,263,1.0,9.0,61,0.00,,,0.00,meteohub,2013-09-05 21:48:00,
2013-09-05 17:49:00,76.5,62.1,29.98,SSW,208,2.0,9.0,61,0.00,,,0.00,meteohub,2013-09-05 21:49:00,
2013-09-05 17:50:00,76.5,62.1,29.97,ESE,113,0.0,9.0,61,0.00,,,0.00,meteohub,2013-09-05 21:50:00,
2013-09-05 17:51:00,76.5,62.1,29.98,NW,311,1.0,4.0,61,0.00,,,0.00,meteohub,2013-09-05 21:51:00,
2013-09-05 17:52:00,76.3,61.9,29.98,WNW,296,2.0,4.0,61,0.00,,,0.00,meteohub,2013-09-05 21:52:00,
2013-09-05 17:54:00,76.3,62.2,29.98,WNW,291,4.0,4.0,62,0.00,,,0.00,meteohub,2013-09-05 21:54:00,
2013-09-05 17:55:00,76.1,62.6,29.98,WSW,249,2.0,7.0,63,0.00,,,0.00,meteohub,2013-09-05 21:55:00,
2013-09-05 17:56:00,76.1,62.6,29.98,WNW,290,3.0,7.0,63,0.00,,,0.00,meteohub,2013-09-05 21:56:00,
2013-09-05 17:59:00,75.7,62.2,29.98,West,274,1.0,7.0,63,0.00,,,0.00,meteohub,2013-09-05 21:59:00,
2013-09-05 18:00:00,75.7,62.2,29.98,WNW,300,1.0,8.0,63,0.00,,,0.00,meteohub,2013-09-05 22:00:00,
2013-09-05 18:01:00,75.7,62.2,29.98,NW,324,0.0,8.0,63,0.00,,,0.00,meteohub,2013-09-05 22:01:00,
2013-09-05 18:03:00,75.7,62.2,29.98,WNW,294,0.0,8.0,63,0.00,,,0.00,meteohub,2013-09-05 22:03:00,
2013-09-05 18:04:00,75.7,62.8,29.98,North,9,0.0,8.0,64,0.00,,,0.00,meteohub,2013-09-05 22:04:00,
2013-09-05 18:05:00,75.7,62.8,29.98,WNW,293,1.0,8.0,64,0.00,,,0.00,meteohub,2013-09-05 22:05:00,
2013-09-05 18:06:00,75.7,62.8,29.98,SW,220,3.0,8.0,64,0.00,,,0.00,meteohub,2013-09-05 22:06:00,
2013-09-05 18:07:00,75.6,62.6,29.98,West,271,0.0,8.0,64,0.00,,,0.00,meteohub,2013-09-05 22:07:00,
2013-09-05 18:10:00,75.6,62.6,29.98,West,265,0.0,8.0,64,0.00,,,0.00,meteohub,2013-09-05 22:10:00,
2013-09-05 18:11:00,75.6,62.6,29.98,West,273,1.0,8.0,64,0.00,,,0.00,meteohub,2013-09-05 22:11:00,
2013-09-05 18:14:00,75.6,62.6,29.99,WNW,282,0.0,8.0,64,0.00,,,0.00,meteohub,2013-09-05 22:14:00,
2013-09-05 18:15:00,75.6,62.6,29.99,NW,315,3.0,7.0,64,0.00,,,0.00,meteohub,2013-09-05 22:15:00,
2013-09-05 18:16:00,75.6,62.6,29.99,SW,229,2.0,7.0,64,0.00,,,0.00,meteohub,2013-09-05 22:16:00,
2013-09-05 18:19:00,75.4,61.9,29.99,NNE,15,4.0,7.0,63,0.00,,,0.00,meteohub,2013-09-05 22:19:00,
2013-09-05 18:20:00,75.4,61.9,29.99,NNE,17,3.0,7.0,63,0.00,,,0.00,meteohub,2013-09-05 22:20:00,
2013-09-05 18:21:00,75.4,61.9,29.99,WSW,257,2.0,7.0,63,0.00,,,0.00,meteohub,2013-09-05 22:21:00,
2013-09-05 18:22:00,75.6,62.1,29.99,North,5,3.0,7.0,63,0.00,,,0.00,meteohub,2013-09-05 22:22:00,
2013-09-05 18:24:00,75.6,62.1,29.99,WNW,294,0.0,7.0,63,0.00,,,0.00,meteohub,2013-09-05 22:24:00,
2013-09-05 18:26:00,75.6,61.7,29.99,WSW,243,2.0,7.0,62,0.00,,,0.00,meteohub,2013-09-05 22:26:00,
2013-09-05 18:27:00,75.7,61.3,29.99,West,267,2.0,7.0,61,0.00,,,0.00,meteohub,2013-09-05 22:27:00,
2013-09-05 18:29:00,75.9,61.0,29.99,North,11,7.0,7.0,60,0.00,,,0.00,meteohub,2013-09-05 22:29:00,
2013-09-05 18:31:00,75.9,60.1,29.99,NW,324,3.0,7.0,58,0.00,,,0.00,meteohub,2013-09-05 22:31:00,
2013-09-05 18:32:00,76.1,60.3,29.99,WNW,290,1.0,7.0,58,0.00,,,0.00,meteohub,2013-09-05 22:32:00,
2013-09-05 18:33:00,76.1,60.3,29.99,NE,34,1.0,7.0,58,0.00,,,0.00,meteohub,2013-09-05 22:33:00,
2013-09-05 18:34:00,76.1,60.3,29.99,NE,45,5.0,7.0,58,0.00,,,0.00,meteohub,2013-09-05 22:34:00,
2013-09-05 18:35:00,76.1,60.3,29.99,SW,220,3.0,10.0,58,0.00,,,0.00,meteohub,2013-09-05 22:35:00,
2013-09-05 18:36:00,76.1,60.3,29.99,SW,232,2.0,10.0,58,0.00,,,0.00,meteohub,2013-09-05 22:36:00,
2013-09-05 18:37:00,76.1,60.3,29.99,NNW,335,2.0,10.0,58,0.00,,,0.00,meteohub,2013-09-05 22:37:00,
2013-09-05 18:39:00,76.1,60.8,29.99,North,0,0.0,10.0,59,0.00,,,0.00,meteohub,2013-09-05 22:39:00,
2013-09-05 18:40:00,76.3,61.0,29.99,ENE,63,0.0,10.0,59,0.00,,,0.00,meteohub,2013-09-05 22:40:00,
2013-09-05 18:41:00,76.3,61.0,29.99,East,95,2.0,10.0,59,0.00,,,0.00,meteohub,2013-09-05 22:41:00,
2013-09-05 18:42:00,76.3,61.0,29.99,NNW,329,2.0,10.0,59,0.00,,,0.00,meteohub,2013-09-05 22:42:00,
2013-09-05 18:45:00,75.9,59.5,29.99,NNW,333,1.0,10.0,57,0.00,,,0.00,meteohub,2013-09-05 22:45:00,
2013-09-05 18:46:00,75.9,59.5,29.99,SSW,211,1.0,9.0,57,0.00,,,0.00,meteohub,2013-09-05 22:46:00,
2013-09-05 18:47:00,75.9,59.5,29.99,NE,36,4.0,9.0,57,0.00,,,0.00,meteohub,2013-09-05 22:47:00,
2013-09-05 18:49:00,75.7,59.9,29.99,NNE,25,1.0,9.0,58,0.00,,,0.00,meteohub,2013-09-05 22:49:00,
2013-09-05 18:50:00,75.7,59.9,30.00,NW,308,2.0,9.0,58,0.00,,,0.00,meteohub,2013-09-05 22:50:00,
2013-09-05 18:52:00,75.6,59.7,30.00,SE,142,0.0,9.0,58,0.00,,,0.00,meteohub,2013-09-05 22:52:00,
2013-09-05 18:54:00,75.6,59.7,30.00,WSW,256,3.0,9.0,58,0.00,,,0.00,meteohub,2013-09-05 22:54:00,
2013-09-05 18:56:00,75.6,59.7,30.00,ENE,57,3.0,9.0,58,0.00,,,0.00,meteohub,2013-09-05 22:56:00,
2013-09-05 18:57:00,75.4,60.1,30.00,NNE,28,2.0,9.0,59,0.00,,,0.00,meteohub,2013-09-05 22:57:00,
2013-09-05 19:00:00,75.4,59.0,30.00,SW,216,2.0,8.0,57,0.00,,,0.00,meteohub,2013-09-05 23:00:00,
2013-09-05 19:01:00,75.4,59.5,30.00,SSE,163,1.0,8.0,58,0.00,,,0.00,meteohub,2013-09-05 23:01:00,
2013-09-05 19:02:00,75.4,59.5,30.00,South,180,0.0,8.0,58,0.00,,,0.00,meteohub,2013-09-05 23:02:00,
2013-09-05 19:03:00,75.2,59.4,30.00,ESE,111,1.0,8.0,58,0.00,,,0.00,meteohub,2013-09-05 23:03:00,
2013-09-05 19:06:00,75.0,58.8,30.00,NNE,30,1.0,8.0,57,0.00,,,0.00,meteohub,2013-09-05 23:06:00,
2013-09-05 19:07:00,75.0,58.8,30.00,North,0,2.0,8.0,57,0.00,,,0.00,meteohub,2013-09-05 23:07:00,
2013-09-05 19:09:00,74.8,58.6,30.00,SW,222,2.0,8.0,57,0.00,,,0.00,meteohub,2013-09-05 23:09:00,
2013-09-05 19:11:00,74.8,58.1,30.00,WNW,290,2.0,9.0,56,0.00,,,0.00,meteohub,2013-09-05 23:11:00,
2013-09-05 19:12:00,74.7,57.9,30.01,WNW,292,4.0,9.0,56,0.00,,,0.00,meteohub,2013-09-05 23:12:00,
2013-09-05 19:14:00,74.7,57.9,30.01,NNE,28,4.0,9.0,56,0.00,,,0.00,meteohub,2013-09-05 23:14:00,
2013-09-05 19:16:00,74.5,58.3,30.01,SSW,196,0.0,9.0,57,0.00,,,0.00,meteohub,2013-09-05 23:16:00,
2013-09-05 19:17:00,74.5,58.3,30.01,West,260,1.0,9.0,57,0.00,,,0.00,meteohub,2013-09-05 23:17:00,
2013-09-05 19:18:00,74.5,58.3,30.01,South,178,2.0,9.0,57,0.00,,,0.00,meteohub,2013-09-05 23:18:00,
2013-09-05 19:19:00,74.3,57.6,30.01,West,263,2.0,9.0,56,0.00,,,0.00,meteohub,2013-09-05 23:19:00,
2013-09-05 19:22:00,74.1,58.5,30.01,NW,309,1.0,8.0,58,0.00,,,0.00,meteohub,2013-09-05 23:22:00,
2013-09-05 19:24:00,73.9,58.3,30.01,WNW,283,0.0,8.0,58,0.00,,,0.00,meteohub,2013-09-05 23:24:00,
2013-09-05 19:25:00,73.9,58.3,30.01,West,263,1.0,8.0,58,0.00,,,0.00,meteohub,2013-09-05 23:25:00,
2013-09-05 19:27:00,73.9,58.3,30.01,NE,44,2.0,8.0,58,0.00,,,0.00,meteohub,2013-09-05 23:27:00,
2013-09-05 19:29:00,73.8,58.1,30.01,West,265,1.0,8.0,58,0.00,,,0.00,meteohub,2013-09-05 23:29:00,
2013-09-05 19:30:00,73.8,58.1,30.01,SSW,204,2.0,8.0,58,0.00,,,0.00,meteohub,2013-09-05 23:30:00,
2013-09-05 19:32:00,73.6,58.3,30.01,SSW,205,2.0,6.0,59,0.00,,,0.00,meteohub,2013-09-05 23:32:00,
2013-09-05 19:34:00,73.6,58.3,30.01,NNE,14,1.0,6.0,59,0.00,,,0.00,meteohub,2013-09-05 23:34:00,
2013-09-05 19:35:00,73.6,57.9,30.01,WNW,302,1.0,6.0,58,0.00,,,0.00,meteohub,2013-09-05 23:35:00,
2013-09-05 19:37:00,73.2,57.0,30.02,SSE,153,2.0,6.0,57,0.00,,,0.00,meteohub,2013-09-05 23:37:00,
2013-09-05 19:38:00,73.2,57.0,30.01,North,0,4.0,6.0,57,0.00,,,0.00,meteohub,2013-09-05 23:38:00,
2013-09-05 19:40:00,73.2,56.1,30.02,NE,38,1.0,6.0,55,0.00,,,0.00,meteohub,2013-09-05 23:40:00,
2013-09-05 19:41:00,73.2,56.1,30.02,East,85,2.0,8.0,55,0.00,,,0.00,meteohub,2013-09-05 23:41:00,
2013-09-05 19:42:00,73.0,55.9,30.02,NNW,329,3.0,8.0,55,0.00,,,0.00,meteohub,2013-09-05 23:42:00,
2013-09-05 19:43:00,73.0,55.4,30.02,NE,42,3.0,8.0,54,0.00,,,0.00,meteohub,2013-09-05 23:43:00,
2013-09-05 19:44:00,73.0,55.4,30.02,SSE,147,1.0,8.0,54,0.00,,,0.00,meteohub,2013-09-05 23:44:00,
2013-09-05 19:45:00,73.0,55.4,30.02,South,169,4.0,8.0,54,0.00,,,0.00,meteohub,2013-09-05 23:45:00,
2013-09-05 19:46:00,73.0,55.4,30.02,NNE,30,8.0,11.0,54,0.00,,,0.00,meteohub,2013-09-05 23:46:00,
2013-09-05 19:47:00,73.0,55.4,30.02,West,264,2.0,11.0,54,0.00,,,0.00,meteohub,2013-09-05 23:47:00,
2013-09-05 19:48:00,73.0,55.4,30.02,WNW,294,3.0,11.0,54,0.00,,,0.00,meteohub,2013-09-05 23:48:00,
2013-09-05 19:49:00,73.0,55.4,30.02,South,175,2.0,11.0,54,0.00,,,0.00,meteohub,2013-09-05 23:49:00,
2013-09-05 19:50:00,72.9,55.2,30.02,SW,217,1.0,11.0,54,0.00,,,0.00,meteohub,2013-09-05 23:50:00,
2013-09-05 19:51:00,72.9,55.8,30.02,SW,234,2.0,11.0,55,0.00,,,0.00,meteohub,2013-09-05 23:51:00,
2013-09-05 19:53:00,72.9,55.2,30.03,North,10,4.0,11.0,54,0.00,,,0.00,meteohub,2013-09-05 23:53:00,
2013-09-05 19:54:00,72.9,55.2,30.03,SW,214,3.0,11.0,54,0.00,,,0.00,meteohub,2013-09-05 23:54:00,
2013-09-05 19:55:00,72.9,54.7,30.03,NW,316,3.0,8.0,53,0.00,,,0.00,meteohub,2013-09-05 23:55:00,
2013-09-05 19:56:00,72.7,54.5,30.03,NNE,16,3.0,8.0,53,0.00,,,0.00,meteohub,2013-09-05 23:56:00,
2013-09-05 19:58:00,72.7,54.5,30.03,NNE,16,0.0,8.0,53,0.00,,,0.00,meteohub,2013-09-05 23:58:00,
2013-09-05 19:59:00,72.7,55.0,30.03,SW,229,1.0,8.0,54,0.00,,,0.00,meteohub,2013-09-05 23:59:00,
2013-09-05 20:00:00,72.7,55.0,30.03,NW,315,2.0,10.0,54,0.00,,,0.00,meteohub,2013-09-06 00:00:00,
2013-09-05 20:03:00,72.7,55.0,30.03,West,266,2.0,10.0,54,0.00,,,0.00,meteohub,2013-09-06 00:03:00,
2013-09-05 20:04:00,72.7,55.0,30.03,ESE,115,3.0,10.0,54,0.00,,,0.00,meteohub,2013-09-06 00:04:00,
2013-09-05 20:05:00,72.5,54.3,30.03,NNW,338,4.0,10.0,53,0.00,,,0.00,meteohub,2013-09-06 00:05:00,
2013-09-05 20:08:00,72.3,54.7,30.03,NNW,341,3.0,10.0,54,0.00,,,0.00,meteohub,2013-09-06 00:08:00,
2013-09-05 20:09:00,72.3,54.7,30.03,WSW,252,2.0,10.0,54,0.00,,,0.00,meteohub,2013-09-06 00:09:00,
2013-09-05 20:11:00,72.3,54.7,30.03,NE,50,1.0,11.0,54,0.00,,,0.00,meteohub,2013-09-06 00:11:00,
2013-09-05 20:12:00,72.1,54.5,30.04,West,276,2.0,11.0,54,0.00,,,0.00,meteohub,2013-09-06 00:12:00,
2013-09-05 20:14:00,72.1,54.1,30.04,West,277,2.0,11.0,53,0.00,,,0.00,meteohub,2013-09-06 00:14:00,
2013-09-05 20:15:00,72.1,54.1,30.04,WSW,246,4.0,11.0,53,0.00,,,0.00,meteohub,2013-09-06 00:15:00,
2013-09-05 20:16:00,72.0,54.0,30.04,West,265,4.0,11.0,53,0.00,,,0.00,meteohub,2013-09-06 00:16:00,
2013-09-05 20:17:00,72.0,54.0,30.04,SW,234,3.0,11.0,53,0.00,,,0.00,meteohub,2013-09-06 00:17:00,
2013-09-05 20:18:00,72.0,54.0,30.04,NE,36,5.0,11.0,53,0.00,,,0.00,meteohub,2013-09-06 00:18:00,
2013-09-05 20:19:00,72.0,54.0,30.04,NE,44,5.0,11.0,53,0.00,,,0.00,meteohub,2013-09-06 00:19:00,
2013-09-05 20:20:00,72.0,54.3,30.04,NNE,19,1.0,11.0,54,0.00,,,0.00,meteohub,2013-09-06 00:20:00,
2013-09-05 20:21:00,72.0,54.3,30.04,NNE,30,4.0,11.0,54,0.00,,,0.00,meteohub,2013-09-06 00:21:00,
2013-09-05 20:22:00,72.0,54.0,30.04,SW,221,1.0,11.0,53,0.00,,,0.00,meteohub,2013-09-06 00:22:00,
2013-09-05 20:23:00,72.0,54.0,30.04,North,0,1.0,11.0,53,0.00,,,0.00,meteohub,2013-09-06 00:23:00,
2013-09-05 20:24:00,72.0,54.0,30.04,NNE,32,1.0,11.0,53,0.00,,,0.00,meteohub,2013-09-06 00:24:00,
2013-09-05 20:25:00,71.8,53.8,30.04,NNW,344,5.0,10.0,53,0.00,,,0.00,meteohub,2013-09-06 00:25:00,
2013-09-05 20:26:00,71.8,53.2,30.04,NW,310,7.0,10.0,52,0.00,,,0.00,meteohub,2013-09-06 00:26:00,
2013-09-05 20:28:00,71.8,53.2,30.05,WNW,302,2.0,10.0,52,0.00,,,0.00,meteohub,2013-09-06 00:28:00,
2013-09-05 20:29:00,71.8,53.2,30.05,NNE,33,4.0,10.0,52,0.00,,,0.00,meteohub,2013-09-06 00:29:00,
2013-09-05 20:30:00,71.8,53.2,30.05,NNE,18,4.0,10.0,52,0.00,,,0.00,meteohub,2013-09-06 00:30:00,
2013-09-05 20:31:00,71.8,53.2,30.05,NNE,26,3.0,10.0,52,0.00,,,0.00,meteohub,2013-09-06 00:31:00,
2013-09-05 20:33:00,71.8,53.2,30.05,NNE,28,8.0,10.0,52,0.00,,,0.00,meteohub,2013-09-06 00:33:00,
2013-09-05 20:34:00,71.6,53.1,30.05,SW,230,3.0,10.0,52,0.00,,,0.00,meteohub,2013-09-06 00:34:00,
2013-09-05 20:35:00,71.6,53.1,30.05,NNE,24,6.0,12.0,52,0.00,,,0.00,meteohub,2013-09-06 00:35:00,
2013-09-05 20:37:00,71.6,52.5,30.05,NW,313,4.0,12.0,51,0.00,,,0.00,meteohub,2013-09-06 00:37:00,
2013-09-05 20:38:00,71.6,52.5,30.05,North,5,1.0,12.0,51,0.00,,,0.00,meteohub,2013-09-06 00:38:00,
2013-09-05 20:39:00,71.4,51.8,30.05,NNE,20,3.0,12.0,50,0.00,,,0.00,meteohub,2013-09-06 00:39:00,
2013-09-05 20:40:00,71.4,51.8,30.05,NE,55,6.0,12.0,50,0.00,,,0.00,meteohub,2013-09-06 00:40:00,
2013-09-05 20:42:00,71.4,51.8,30.05,NNE,21,9.0,12.0,50,0.00,,,0.00,meteohub,2013-09-06 00:42:00,
2013-09-05 20:44:00,71.4,51.3,30.05,NNE,24,2.0,12.0,49,0.00,,,0.00,meteohub,2013-09-06 00:44:00,
2013-09-05 20:45:00,71.4,51.3,30.05,NE,34,5.0,12.0,49,0.00,,,0.00,meteohub,2013-09-06 00:45:00,
2013-09-05 20:46:00,71.4,51.8,30.05,WNW,285,1.0,12.0,50,0.00,,,0.00,meteohub,2013-09-06 00:46:00,
2013-09-05 20:47:00,71.4,51.8,30.06,North,355,3.0,12.0,50,0.00,,,0.00,meteohub,2013-09-06 00:47:00,
2013-09-05 20:50:00,71.2,52.2,30.05,NW,320,2.0,11.0,51,0.00,,,0.00,meteohub,2013-09-06 00:50:00,
2013-09-05 20:51:00,71.2,52.2,30.05,WSW,252,1.0,11.0,51,0.00,,,0.00,meteohub,2013-09-06 00:51:00,
2013-09-05 20:52:00,71.2,51.6,30.06,NNE,17,12.0,12.0,50,0.00,,,0.00,meteohub,2013-09-06 00:52:00,
2013-09-05 20:53:00,71.2,51.6,30.06,NNE,20,5.0,11.0,50,0.00,,,0.00,meteohub,2013-09-06 00:53:00,
2013-09-05 20:54:00,71.2,51.6,30.06,West,276,1.0,11.0,50,0.00,,,0.00,meteohub,2013-09-06 00:54:00,
2013-09-05 20:56:00,71.2,51.6,30.06,NNE,19,9.0,12.0,50,0.00,,,0.00,meteohub,2013-09-06 00:56:00,
2013-09-05 20:57:00,71.1,50.9,30.06,North,5,3.0,12.0,49,0.00,,,0.00,meteohub,2013-09-06 00:57:00,
2013-09-05 20:58:00,71.1,51.4,30.06,NNE,28,6.0,12.0,50,0.00,,,0.00,meteohub,2013-09-06 00:58:00,
2013-09-05 20:59:00,71.1,51.4,30.06,NNW,333,10.0,12.0,50,0.00,,,0.00,meteohub,2013-09-06 00:59:00,
2013-09-05 21:01:00,71.1,51.4,30.06,West,263,3.0,12.0,50,0.00,,,0.00,meteohub,2013-09-06 01:01:00,
2013-09-05 21:02:00,71.1,52.0,30.06,NNE,19,4.0,12.0,51,0.00,,,0.00,meteohub,2013-09-06 01:02:00,
2013-09-05 21:03:00,71.1,52.0,30.06,WNW,290,1.0,12.0,51,0.00,,,0.00,meteohub,2013-09-06 01:03:00,
2013-09-05 21:04:00,70.9,52.3,30.06,NNE,29,4.0,12.0,52,0.00,,,0.00,meteohub,2013-09-06 01:04:00,
2013-09-05 21:06:00,70.9,51.8,30.06,NNE,12,3.0,12.0,51,0.00,,,0.00,meteohub,2013-09-06 01:06:00,
2013-09-05 21:07:00,70.9,51.8,30.06,NNE,19,7.0,12.0,51,0.00,,,0.00,meteohub,2013-09-06 01:07:00,
2013-09-05 21:08:00,70.7,51.6,30.06,NNE,15,5.0,12.0,51,0.00,,,0.00,meteohub,2013-09-06 01:08:00,
2013-09-05 21:09:00,70.7,51.6,30.06,NNE,26,11.0,12.0,51,0.00,,,0.00,meteohub,2013-09-06 01:09:00,
2013-09-05 21:10:00,70.7,51.6,30.06,NNE,29,2.0,12.0,51,0.00,,,0.00,meteohub,2013-09-06 01:10:00,
2013-09-05 21:11:00,70.5,50.9,30.07,North,355,8.0,11.0,50,0.00,,,0.00,meteohub,2013-09-06 01:11:00,
2013-09-05 21:12:00,70.5,50.4,30.06,NE,38,6.0,11.0,49,0.00,,,0.00,meteohub,2013-09-06 01:12:00,
2013-09-05 21:14:00,70.5,50.4,30.06,North,10,10.0,11.0,49,0.00,,,0.00,meteohub,2013-09-06 01:14:00,
2013-09-05 21:15:00,70.5,49.8,30.07,North,5,9.0,13.0,48,0.00,,,0.00,meteohub,2013-09-06 01:15:00,
2013-09-05 21:16:00,70.5,50.4,30.06,NNE,28,5.0,13.0,49,0.00,,,0.00,meteohub,2013-09-06 01:16:00,
2013-09-05 21:18:00,70.5,50.4,30.07,North,11,2.0,13.0,49,0.00,,,0.00,meteohub,2013-09-06 01:18:00,
2013-09-05 21:19:00,70.5,50.4,30.07,NE,38,6.0,13.0,49,0.00,,,0.00,meteohub,2013-09-06 01:19:00,
2013-09-05 21:20:00,70.5,50.4,30.07,NNE,24,6.0,13.0,49,0.00,,,0.00,meteohub,2013-09-06 01:20:00,
2013-09-05 21:21:00,70.5,50.4,30.07,North,5,5.0,13.0,49,0.00,,,0.00,meteohub,2013-09-06 01:21:00,
2013-09-05 21:22:00,70.5,50.9,30.07,NE,42,11.0,13.0,50,0.00,,,0.00,meteohub,2013-09-06 01:22:00,
2013-09-05 21:24:00,70.5,49.8,30.07,NNE,22,8.0,13.0,48,0.00,,,0.00,meteohub,2013-09-06 01:24:00,
2013-09-05 21:26:00,70.5,49.3,30.07,North,11,7.0,13.0,47,0.00,,,0.00,meteohub,2013-09-06 01:26:00,
2013-09-05 21:27:00,70.5,48.7,30.07,NNE,22,8.0,13.0,46,0.00,,,0.00,meteohub,2013-09-06 01:27:00,
2013-09-05 21:28:00,70.5,48.7,30.07,NNE,22,8.0,13.0,46,0.00,,,0.00,meteohub,2013-09-06 01:28:00,
2013-09-05 21:29:00,70.5,48.7,30.07,NNE,23,3.0,13.0,46,0.00,,,0.00,meteohub,2013-09-06 01:29:00,
2013-09-05 21:32:00,70.5,49.3,30.07,NE,38,6.0,14.0,47,0.00,,,0.00,meteohub,2013-09-06 01:32:00,
2013-09-05 21:34:00,70.5,49.3,30.07,NE,39,6.0,14.0,47,0.00,,,0.00,meteohub,2013-09-06 01:34:00,
2013-09-05 21:37:00,70.5,49.3,30.08,NE,42,10.0,14.0,47,0.00,,,0.00,meteohub,2013-09-06 01:37:00,
2013-09-05 21:39:00,70.5,49.3,30.08,North,9,5.0,14.0,47,0.00,,,0.00,meteohub,2013-09-06 01:39:00,
2013-09-05 21:40:00,70.5,49.3,30.08,NE,38,4.0,14.0,47,0.00,,,0.00,meteohub,2013-09-06 01:40:00,
2013-09-05 21:41:00,70.5,49.8,30.08,NE,50,6.0,14.0,48,0.00,,,0.00,meteohub,2013-09-06 01:41:00,
2013-09-05 21:42:00,70.5,50.4,30.08,ENE,76,2.0,14.0,49,0.00,,,0.00,meteohub,2013-09-06 01:42:00,
2013-09-05 21:43:00,70.5,50.4,30.08,NNE,15,2.0,14.0,49,0.00,,,0.00,meteohub,2013-09-06 01:43:00,
2013-09-05 21:45:00,70.3,49.6,30.08,NE,44,6.0,13.0,48,0.00,,,0.00,meteohub,2013-09-06 01:45:00,
2013-09-05 21:46:00,70.3,49.6,30.08,NNE,32,6.0,13.0,48,0.00,,,0.00,meteohub,2013-09-06 01:46:00,
2013-09-05 21:47:00,70.3,49.6,30.08,NNE,15,3.0,13.0,48,0.00,,,0.00,meteohub,2013-09-06 01:47:00,
2013-09-05 21:48:00,70.2,50.2,30.08,NE,38,10.0,13.0,49,0.00,,,0.00,meteohub,2013-09-06 01:48:00,
2013-09-05 21:49:00,70.2,50.2,30.08,NNE,14,4.0,13.0,49,0.00,,,0.00,meteohub,2013-09-06 01:49:00,
2013-09-05 21:51:00,70.2,50.2,30.08,NNE,14,2.0,13.0,49,0.00,,,0.00,meteohub,2013-09-06 01:51:00,
2013-09-05 21:52:00,70.2,50.7,30.08,NNE,17,5.0,13.0,50,0.00,,,0.00,meteohub,2013-09-06 01:52:00,
2013-09-05 21:53:00,70.0,50.5,30.08,NNE,20,5.0,13.0,50,0.00,,,0.00,meteohub,2013-09-06 01:53:00,
2013-09-05 21:54:00,70.0,50.5,30.08,NNW,348,6.0,13.0,50,0.00,,,0.00,meteohub,2013-09-06 01:54:00,
2013-09-05 21:55:00,70.0,50.5,30.08,NE,37,6.0,13.0,50,0.00,,,0.00,meteohub,2013-09-06 01:55:00,
2013-09-05 21:56:00,70.0,50.5,30.08,NNE,32,4.0,13.0,50,0.00,,,0.00,meteohub,2013-09-06 01:56:00,
2013-09-05 21:58:00,69.8,50.9,30.08,NNE,32,1.0,13.0,51,0.00,,,0.00,meteohub,2013-09-06 01:58:00,
2013-09-05 22:00:00,69.6,51.3,30.08,ENE,61,3.0,13.0,52,0.00,,,0.00,meteohub,2013-09-06 02:00:00,
2013-09-05 22:01:00,69.6,50.7,30.08,West,273,2.0,13.0,51,0.00,,,0.00,meteohub,2013-09-06 02:01:00,
2013-09-05 22:03:00,69.4,50.5,30.08,NNE,27,5.0,13.0,51,0.00,,,0.00,meteohub,2013-09-06 02:03:00,
2013-09-05 22:05:00,69.4,51.1,30.08,North,5,5.0,13.0,52,0.00,,,0.00,meteohub,2013-09-06 02:05:00,
2013-09-05 22:06:00,69.3,50.9,30.08,ENE,59,2.0,11.0,52,0.00,,,0.00,meteohub,2013-09-06 02:06:00,
2013-09-05 22:07:00,69.3,51.4,30.08,NNE,30,4.0,11.0,53,0.00,,,0.00,meteohub,2013-09-06 02:07:00,
2013-09-05 22:08:00,69.3,51.4,30.08,ENE,78,2.0,11.0,53,0.00,,,0.00,meteohub,2013-09-06 02:08:00,
2013-09-05 22:10:00,69.3,51.4,30.08,NNE,31,5.0,11.0,53,0.00,,,0.00,meteohub,2013-09-06 02:10:00,
2013-09-05 22:11:00,69.1,51.8,30.08,North,5,3.0,11.0,54,0.00,,,0.00,meteohub,2013-09-06 02:11:00,
2013-09-05 22:12:00,69.1,51.8,30.08,NNE,26,5.0,11.0,54,0.00,,,0.00,meteohub,2013-09-06 02:12:00,
2013-09-05 22:13:00,69.1,51.8,30.08,North,11,5.0,11.0,54,0.00,,,0.00,meteohub,2013-09-06 02:13:00,
2013-09-05 22:15:00,68.9,51.6,30.08,WNW,294,4.0,11.0,54,0.00,,,0.00,meteohub,2013-09-06 02:15:00,
2013-09-05 22:16:00,68.9,51.6,30.08,NE,34,8.0,11.0,54,0.00,,,0.00,meteohub,2013-09-06 02:16:00,
2013-09-05 22:18:00,68.9,51.6,30.08,NNW,346,4.0,11.0,54,0.00,,,0.00,meteohub,2013-09-06 02:18:00,
2013-09-05 22:19:00,68.9,51.6,30.08,NNE,12,8.0,11.0,54,0.00,,,0.00,meteohub,2013-09-06 02:19:00,
2013-09-05 22:21:00,68.9,51.6,30.08,NNE,29,5.0,10.0,54,0.00,,,0.00,meteohub,2013-09-06 02:21:00,
2013-09-05 22:23:00,68.9,51.6,30.09,North,5,9.0,10.0,54,0.00,,,0.00,meteohub,2013-09-06 02:23:00,
2013-09-05 22:24:00,68.9,51.6,30.09,NNE,20,5.0,10.0,54,0.00,,,0.00,meteohub,2013-09-06 02:24:00,
2013-09-05 22:26:00,68.9,51.6,30.09,North,5,8.0,12.0,54,0.00,,,0.00,meteohub,2013-09-06 02:26:00,
2013-09-05 22:27:00,68.9,51.6,30.09,NE,54,9.0,12.0,54,0.00,,,0.00,meteohub,2013-09-06 02:27:00,
2013-09-05 22:28:00,68.7,52.0,30.09,NNE,14,8.0,12.0,55,0.00,,,0.00,meteohub,2013-09-06 02:28:00,
2013-09-05 22:29:00,68.7,51.4,30.09,NNE,32,5.0,12.0,54,0.00,,,0.00,meteohub,2013-09-06 02:29:00,
2013-09-05 22:30:00,68.7,52.0,30.09,NW,326,4.0,12.0,55,0.00,,,0.00,meteohub,2013-09-06 02:30:00,
2013-09-05 22:32:00,68.7,52.3,30.09,North,5,11.0,12.0,56,0.00,,,0.00,meteohub,2013-09-06 02:32:00,
2013-09-05 22:34:00,68.7,51.4,30.09,NNE,22,5.0,12.0,54,0.00,,,0.00,meteohub,2013-09-06 02:34:00,
2013-09-05 22:35:00,68.7,51.4,30.09,NNE,24,6.0,12.0,54,0.00,,,0.00,meteohub,2013-09-06 02:35:00,
2013-09-05 22:37:00,68.7,51.4,30.09,NNW,344,2.0,12.0,54,0.00,,,0.00,meteohub,2013-09-06 02:37:00,
2013-09-05 22:39:00,68.7,51.4,30.09,NNE,15,8.0,12.0,54,0.00,,,0.00,meteohub,2013-09-06 02:39:00,
2013-09-05 22:40:00,68.7,51.4,30.09,NNE,26,5.0,12.0,54,0.00,,,0.00,meteohub,2013-09-06 02:40:00,
2013-09-05 22:43:00,68.7,52.0,30.09,NNE,31,2.0,12.0,55,0.00,,,0.00,meteohub,2013-09-06 02:43:00,
2013-09-05 22:44:00,68.7,51.4,30.09,NNE,15,7.0,12.0,54,0.00,,,0.00,meteohub,2013-09-06 02:44:00,
2013-09-05 22:45:00,68.7,51.4,30.09,NNE,21,7.0,11.0,54,0.00,,,0.00,meteohub,2013-09-06 02:45:00,
2013-09-05 22:47:00,68.7,50.9,30.09,North,355,3.0,11.0,53,0.00,,,0.00,meteohub,2013-09-06 02:47:00,
2013-09-05 22:49:00,68.7,51.4,30.09,NNE,22,5.0,11.0,54,0.00,,,0.00,meteohub,2013-09-06 02:49:00,
2013-09-05 22:50:00,68.7,51.4,30.09,NNE,25,3.0,11.0,54,0.00,,,0.00,meteohub,2013-09-06 02:50:00,
2013-09-05 22:51:00,68.7,52.0,30.09,NNE,25,5.0,12.0,55,0.00,,,0.00,meteohub,2013-09-06 02:51:00,
2013-09-05 22:52:00,68.7,52.0,30.09,NNE,27,5.0,12.0,55,0.00,,,0.00,meteohub,2013-09-06 02:52:00,
2013-09-05 22:54:00,68.7,52.0,30.09,NE,37,3.0,12.0,55,0.00,,,0.00,meteohub,2013-09-06 02:54:00,
2013-09-05 22:55:00,68.7,52.0,30.09,NNE,29,5.0,12.0,55,0.00,,,0.00,meteohub,2013-09-06 02:55:00,
2013-09-05 22:56:00,68.7,52.0,30.09,NE,35,5.0,12.0,55,0.00,,,0.00,meteohub,2013-09-06 02:56:00,
2013-09-05 22:58:00,68.7,52.0,30.09,North,355,5.0,12.0,55,0.00,,,0.00,meteohub,2013-09-06 02:58:00,
2013-09-05 22:59:00,68.7,51.4,30.09,NNE,30,8.0,12.0,54,0.00,,,0.00,meteohub,2013-09-06 02:59:00,
2013-09-05 23:00:00,68.7,51.4,30.09,North,355,5.0,12.0,54,0.00,,,0.00,meteohub,2013-09-06 03:00:00,
2013-09-05 23:01:00,68.7,51.4,30.09,NE,55,5.0,12.0,54,0.00,,,0.00,meteohub,2013-09-06 03:01:00,
2013-09-05 23:05:00,68.9,52.0,30.09,NNE,24,8.0,12.0,55,0.00,,,0.00,meteohub,2013-09-06 03:05:00,
2013-09-05 23:06:00,68.9,52.0,30.09,NE,43,5.0,12.0,55,0.00,,,0.00,meteohub,2013-09-06 03:06:00,
2013-09-05 23:11:00,68.9,52.5,30.09,NNE,13,5.0,12.0,56,0.00,,,0.00,meteohub,2013-09-06 03:11:00,
2013-09-05 23:12:00,68.9,52.5,30.09,North,11,2.0,12.0,56,0.00,,,0.00,meteohub,2013-09-06 03:12:00,
2013-09-05 23:16:00,68.7,53.8,30.09,NNE,28,4.0,12.0,59,0.00,,,0.00,meteohub,2013-09-06 03:16:00,
2013-09-05 23:17:00,68.5,53.6,30.09,NE,40,4.0,12.0,59,0.00,,,0.00,meteohub,2013-09-06 03:17:00,
2013-09-05 23:18:00,68.5,54.1,30.09,NNE,15,7.0,12.0,60,0.00,,,0.00,meteohub,2013-09-06 03:18:00,
2013-09-05 23:22:00,68.4,54.0,30.09,NNE,19,5.0,9.0,60,0.00,,,0.00,meteohub,2013-09-06 03:22:00,
2013-09-05 23:24:00,68.4,54.0,30.09,North,355,2.0,9.0,60,0.00,,,0.00,meteohub,2013-09-06 03:24:00,
2013-09-05 23:27:00,68.2,53.8,30.09,NNE,18,3.0,9.0,60,0.00,,,0.00,meteohub,2013-09-06 03:27:00,
2013-09-05 23:28:00,68.2,53.8,30.09,NNE,22,4.0,9.0,60,0.00,,,0.00,meteohub,2013-09-06 03:28:00,
2013-09-05 23:29:00,68.2,53.8,30.09,NNE,30,6.0,9.0,60,0.00,,,0.00,meteohub,2013-09-06 03:29:00,
2013-09-05 23:31:00,68.2,52.9,30.09,NNE,28,5.0,11.0,58,0.00,,,0.00,meteohub,2013-09-06 03:31:00,
2013-09-05 23:33:00,68.4,52.5,30.09,NNE,16,5.0,11.0,57,0.00,,,0.00,meteohub,2013-09-06 03:33:00,
2013-09-05 23:34:00,68.4,52.0,30.09,ENE,71,4.0,11.0,56,0.00,,,0.00,meteohub,2013-09-06 03:34:00,
2013-09-05 23:37:00,68.7,51.4,30.09,NE,37,6.0,11.0,54,0.00,,,0.00,meteohub,2013-09-06 03:37:00,
2013-09-05 23:38:00,68.7,50.9,30.09,NNE,18,5.0,11.0,53,0.00,,,0.00,meteohub,2013-09-06 03:38:00,
2013-09-05 23:39:00,68.7,50.9,30.09,NNE,29,5.0,11.0,53,0.00,,,0.00,meteohub,2013-09-06 03:39:00,
2013-09-05 23:41:00,68.7,50.4,30.09,NE,36,10.0,11.0,52,0.00,,,0.00,meteohub,2013-09-06 03:41:00,
2013-09-05 23:43:00,68.9,50.5,30.09,NNE,14,9.0,11.0,52,0.00,,,0.00,meteohub,2013-09-06 03:43:00,
2013-09-05 23:44:00,69.1,50.7,30.09,NNE,27,8.0,11.0,52,0.00,,,0.00,meteohub,2013-09-06 03:44:00,
2013-09-05 23:46:00,69.1,50.7,30.10,NNE,14,13.0,13.0,52,0.00,,,0.00,meteohub,2013-09-06 03:46:00,
2013-09-05 23:48:00,69.1,50.2,30.10,NNE,27,10.0,13.0,51,0.00,,,0.00,meteohub,2013-09-06 03:48:00,
2013-09-05 23:49:00,69.1,50.2,30.10,NNE,33,13.0,13.0,51,0.00,,,0.00,meteohub,2013-09-06 03:49:00,
2013-09-05 23:52:00,69.3,50.9,30.09,NNE,22,3.0,15.0,52,0.00,,,0.00,meteohub,2013-09-06 03:52:00,
2013-09-05 23:53:00,69.3,50.9,30.10,NNE,25,9.0,15.0,52,0.00,,,0.00,meteohub,2013-09-06 03:53:00,
2013-09-05 23:54:00,69.3,51.4,30.10,NNE,12,7.0,15.0,53,0.00,,,0.00,meteohub,2013-09-06 03:54:00,
2013-09-05 23:55:00,69.1,51.3,30.10,North,355,6.0,15.0,53,0.00,,,0.00,meteohub,2013-09-06 03:55:00,
2013-09-05 23:57:00,69.1,51.8,30.10,North,355,4.0,16.0,54,0.00,,,0.00,meteohub,2013-09-06 03:57:00,
2013-09-05 23:58:00,69.1,52.2,30.10,ENE,64,8.0,16.0,55,0.00,,,0.00,meteohub,2013-09-06 03:58:00,
2013-09-05 23:59:00,69.1,52.2,30.10,NNE,22,9.0,16.0,55,0.00,,,0.00,meteohub,2013-09-06 03:59:00,